Time,TemperatureF,DewpointF,PressureIn,WindDirection,WindDirectionDegrees,WindSpeedMPH,WindSpeedGustMPH,Humidity,HourlyPrecipIn,Conditions,Clouds,dailyrainin,SoftwareType,DateUTC
2013-03-31 00:00:00,49.7,42.8,29.96,South,182,0.0,1.0,77,0.00,,,0.01,Wunderground v.1.15,2013-03-31 04:00:00,
2013-03-31 00:05:00,49.7,43.1,29.95,South,182,0.0,0.0,78,0.00,,,0.00,Wunderground v.1.15,2013-03-31 04:05:00,
2013-03-31 00:06:00,49.7,43.1,29.95,South,182,0.0,0.0,78,0.00,,,0.00,Wunderground v.1.15,2013-03-31 04:06:00,
2013-03-31 00:07:00,49.7,43.1,29.95,South,181,0.0,0.0,78,0.00,,,0.00,Wunderground v.1.15,2013-03-31 04:07:00,
2013-03-31 00:10:00,49.7,43.5,29.95,South,182,0.0,0.0,79,0.00,,,0.00,Wunderground v.1.15,2013-03-31 04:10:00,
2013-03-31 00:12:00,49.8,43.5,29.95,South,182,0.0,1.0,79,0.00,,,0.00,Wunderground v.1.15,2013-03-31 04:12:00,
2013-03-31 00:13:00,49.8,43.5,29.95,South,181,0.0,1.0,79,0.00,,,0.00,Wunderground v.1.15,2013-03-31 04:13:00,
2013-03-31 00:16:00,49.9,43.6,29.95,South,181,0.0,1.0,79,0.00,,,0.00,Wunderground v.1.15,2013-03-31 04:16:00,
2013-03-31 00:17:00,49.9,43.6,29.95,South,182,0.0,1.0,79,0.00,,,0.00,Wunderground v.1.15,2013-03-31 04:17:00,
2013-03-31 00:18:00,49.9,43.6,29.95,South,182,0.0,1.0,79,0.00,,,0.00,Wunderground v.1.15,2013-03-31 04:18:00,
2013-03-31 00:22:00,50.0,44.1,29.95,South,182,0.0,0.0,80,0.00,,,0.00,Wunderground v.1.15,2013-03-31 04:22:00,
2013-03-31 00:23:00,50.0,43.7,29.95,South,182,0.0,0.0,79,0.00,,,0.00,Wunderground v.1.15,2013-03-31 04:23:00,
2013-03-31 00:24:00,50.0,44.1,29.95,South,181,0.0,0.0,80,0.00,,,0.00,Wunderground v.1.15,2013-03-31 04:24:00,
2013-03-31 00:28:00,50.0,44.1,29.94,South,181,0.0,1.0,80,0.00,,,0.00,Wunderground v.1.15,2013-03-31 04:28:00,
2013-03-31 00:29:00,50.0,44.1,29.94,South,181,0.0,1.0,80,0.00,,,0.00,Wunderground v.1.15,2013-03-31 04:29:00,
2013-03-31 00:35:00,50.0,44.4,29.94,South,181,0.0,0.0,81,0.00,,,0.00,Wunderground v.1.15,2013-03-31 04:35:00,
2013-03-31 00:38:00,49.9,44.6,29.94,South,182,0.0,0.0,82,0.00,,,0.01,Wunderground v.1.15,2013-03-31 04:38:00,
2013-03-31 00:41:00,49.9,44.9,29.94,South,181,0.0,0.0,83,0.00,,,0.01,Wunderground v.1.15,2013-03-31 04:41:00,
2013-03-31 00:44:00,49.9,45.3,29.94,South,182,0.0,0.0,84,0.09,,,0.02,Wunderground v.1.15,2013-03-31 04:44:00,
2013-03-31 00:45:00,49.9,45.3,29.94,South,181,0.0,0.0,84,0.09,,,0.02,Wunderground v.1.15,2013-03-31 04:45:00,
2013-03-31 00:49:00,49.7,45.4,29.94,South,182,0.0,0.0,85,0.09,,,0.02,Wunderground v.1.15,2013-03-31 04:49:00,
2013-03-31 00:51:00,49.7,45.4,29.93,South,182,0.0,0.0,85,0.07,,,0.02,Wunderground v.1.15,2013-03-31 04:51:00,
2013-03-31 00:52:00,49.6,45.3,29.93,South,181,0.0,0.0,85,0.06,,,0.02,Wunderground v.1.15,2013-03-31 04:52:00,
2013-03-31 00:53:00,49.6,45.6,29.93,South,181,0.0,0.0,86,0.06,,,0.02,Wunderground v.1.15,2013-03-31 04:53:00,
2013-03-31 00:57:00,49.5,45.8,29.93,South,181,0.0,0.0,87,0.04,,,0.03,Wunderground v.1.15,2013-03-31 04:57:00,
2013-03-31 00:58:00,49.4,45.7,29.93,South,182,0.0,0.0,87,0.04,,,0.03,Wunderground v.1.15,2013-03-31 04:58:00,
2013-03-31 00:59:00,49.4,45.7,29.93,South,182,0.0,0.0,87,0.04,,,0.03,Wunderground v.1.15,2013-03-31 04:59:00,
2013-03-31 01:04:00,49.2,45.5,29.93,South,181,0.0,0.0,87,0.04,,,0.03,Wunderground v.1.15,2013-03-31 05:04:00,
2013-03-31 01:05:00,49.2,45.8,29.93,South,181,0.0,0.0,88,0.04,,,0.03,Wunderground v.1.15,2013-03-31 05:05:00,
2013-03-31 01:06:00,49.2,45.8,29.93,South,182,0.0,0.0,88,0.04,,,0.03,Wunderground v.1.15,2013-03-31 05:06:00,
2013-03-31 01:08:00,49.2,45.8,29.92,South,181,0.0,0.0,88,0.04,,,0.03,Wunderground v.1.15,2013-03-31 05:08:00,
2013-03-31 01:11:00,49.1,45.7,29.92,South,182,0.0,0.0,88,0.04,,,0.04,Wunderground v.1.15,2013-03-31 05:11:00,
2013-03-31 01:13:00,49.0,45.6,29.92,South,182,0.0,0.0,88,0.04,,,0.04,Wunderground v.1.15,2013-03-31 05:13:00,
2013-03-31 01:17:00,48.8,45.7,29.92,South,182,0.0,0.0,89,0.04,,,0.04,Wunderground v.1.15,2013-03-31 05:17:00,
2013-03-31 01:18:00,48.8,45.7,29.92,South,182,0.0,0.0,89,0.04,,,0.04,Wunderground v.1.15,2013-03-31 05:18:00,
2013-03-31 01:19:00,48.7,45.6,29.92,South,182,0.0,0.0,89,0.04,,,0.04,Wunderground v.1.15,2013-03-31 05:19:00,
2013-03-31 01:22:00,48.6,45.8,29.92,South,182,0.0,0.0,90,0.04,,,0.04,Wunderground v.1.15,2013-03-31 05:22:00,
2013-03-31 01:24:00,48.5,45.7,29.92,South,182,0.0,0.0,90,0.04,,,0.04,Wunderground v.1.15,2013-03-31 05:24:00,
2013-03-31 01:25:00,48.5,45.7,29.92,South,182,0.0,0.0,90,0.04,,,0.04,Wunderground v.1.15,2013-03-31 05:25:00,
2013-03-31 01:27:00,48.5,45.7,29.92,South,182,0.0,0.0,90,0.00,,,0.04,Wunderground v.1.15,2013-03-31 05:27:00,
2013-03-31 01:28:00,48.4,45.6,29.92,South,182,0.0,0.0,90,0.00,,,0.04,Wunderground v.1.15,2013-03-31 05:28:00,
2013-03-31 01:33:00,48.3,45.5,29.91,South,182,0.0,0.0,90,0.00,,,0.05,Wunderground v.1.15,2013-03-31 05:33:00,
2013-03-31 01:34:00,48.3,45.8,29.91,South,181,0.0,0.0,91,0.00,,,0.05,Wunderground v.1.15,2013-03-31 05:34:00,
2013-03-31 01:35:00,48.2,45.7,29.91,South,182,0.0,0.0,91,0.00,,,0.05,Wunderground v.1.15,2013-03-31 05:35:00,
2013-03-31 01:38:00,48.1,45.6,29.91,South,181,0.0,0.0,91,0.00,,,0.05,Wunderground v.1.15,2013-03-31 05:38:00,
2013-03-31 01:39:00,48.1,45.6,29.91,South,182,0.0,0.0,91,0.00,,,0.05,Wunderground v.1.15,2013-03-31 05:39:00,
2013-03-31 01:43:00,48.0,45.5,29.91,South,182,0.0,0.0,91,0.00,,,0.05,Wunderground v.1.15,2013-03-31 05:43:00,
2013-03-31 01:45:00,47.9,45.4,29.91,South,182,0.0,0.0,91,0.00,,,0.05,Wunderground v.1.15,2013-03-31 05:45:00,
2013-03-31 01:46:00,47.9,45.4,29.91,South,181,0.0,0.0,91,0.00,,,0.05,Wunderground v.1.15,2013-03-31 05:46:00,
2013-03-31 01:51:00,47.8,45.3,29.91,South,181,0.0,0.0,91,0.00,,,0.05,Wunderground v.1.15,2013-03-31 05:51:00,
2013-03-31 01:53:00,47.8,45.6,29.91,South,182,0.0,0.0,92,0.00,,,0.05,Wunderground v.1.15,2013-03-31 05:53:00,
2013-03-31 01:55:00,47.7,45.5,29.91,South,182,0.0,0.0,92,0.00,,,0.06,Wunderground v.1.15,2013-03-31 05:55:00,
2013-03-31 01:57:00,47.7,45.5,29.91,South,181,0.0,0.0,92,0.00,,,0.06,Wunderground v.1.15,2013-03-31 05:57:00,
2013-03-31 02:00:00,47.6,45.4,29.90,South,181,0.0,0.0,92,0.00,,,0.06,Wunderground v.1.15,2013-03-31 06:00:00,
2013-03-31 02:01:00,47.6,45.4,29.90,South,182,0.0,0.0,92,0.00,,,0.06,Wunderground v.1.15,2013-03-31 06:01:00,
2013-03-31 02:02:00,47.6,45.4,29.90,South,181,0.0,1.0,92,0.00,,,0.06,Wunderground v.1.15,2013-03-31 06:02:00,
2013-03-31 02:05:00,47.6,45.4,29.90,South,182,0.0,2.0,92,0.00,,,0.06,Wunderground v.1.15,2013-03-31 06:05:00,
2013-03-31 02:07:00,47.5,45.3,29.90,South,181,0.0,2.0,92,0.00,,,0.06,Wunderground v.1.15,2013-03-31 06:07:00,
2013-03-31 02:08:00,47.5,45.3,29.90,South,182,0.0,2.0,92,0.00,,,0.06,Wunderground v.1.15,2013-03-31 06:08:00,
2013-03-31 02:10:00,47.5,45.3,29.90,South,181,0.0,0.0,92,0.00,,,0.06,Wunderground v.1.15,2013-03-31 06:10:00,
2013-03-31 02:13:00,47.4,45.2,29.90,South,182,0.0,0.0,92,0.00,,,0.06,Wunderground v.1.15,2013-03-31 06:13:00,
2013-03-31 02:15:00,47.4,45.2,29.90,South,182,0.0,0.0,92,0.00,,,0.06,Wunderground v.1.15,2013-03-31 06:15:00,
2013-03-31 02:18:00,47.4,45.5,29.90,South,181,0.0,0.0,93,0.00,,,0.06,Wunderground v.1.15,2013-03-31 06:18:00,
2013-03-31 02:20:00,47.4,45.5,29.89,South,181,0.0,0.0,93,0.00,,,0.06,Wunderground v.1.15,2013-03-31 06:20:00,
2013-03-31 02:23:00,47.3,45.4,29.89,South,182,0.0,0.0,93,0.00,,,0.06,Wunderground v.1.15,2013-03-31 06:23:00,
2013-03-31 02:24:00,47.3,45.4,29.89,South,181,0.0,0.0,93,0.00,,,0.06,Wunderground v.1.15,2013-03-31 06:24:00,
2013-03-31 02:25:00,47.3,45.4,29.89,South,181,0.0,0.0,93,0.00,,,0.06,Wunderground v.1.15,2013-03-31 06:25:00,
2013-03-31 02:28:00,47.3,45.4,29.89,South,181,0.0,0.0,93,0.00,,,0.07,Wunderground v.1.15,2013-03-31 06:28:00,
2013-03-31 02:29:00,47.3,45.4,29.89,South,181,0.0,0.0,93,0.00,,,0.07,Wunderground v.1.15,2013-03-31 06:29:00,
2013-03-31 02:30:00,47.3,45.4,29.89,South,182,0.0,0.0,93,0.00,,,0.07,Wunderground v.1.15,2013-03-31 06:30:00,
2013-03-31 02:33:00,47.3,45.4,29.89,South,182,0.0,0.0,93,0.00,,,0.07,Wunderground v.1.15,2013-03-31 06:33:00,
2013-03-31 02:34:00,47.2,45.3,29.89,South,182,0.0,0.0,93,0.00,,,0.07,Wunderground v.1.15,2013-03-31 06:34:00,
2013-03-31 02:35:00,47.2,45.3,29.89,South,182,0.0,0.0,93,0.00,,,0.07,Wunderground v.1.15,2013-03-31 06:35:00,
2013-03-31 02:38:00,47.2,45.3,29.89,South,181,0.0,0.0,93,0.00,,,0.07,Wunderground v.1.15,2013-03-31 06:38:00,
2013-03-31 02:39:00,47.2,45.3,29.89,South,182,0.0,0.0,93,0.00,,,0.07,Wunderground v.1.15,2013-03-31 06:39:00,
2013-03-31 02:41:00,47.1,45.2,29.89,South,181,0.0,0.0,93,0.00,,,0.07,Wunderground v.1.15,2013-03-31 06:41:00,
2013-03-31 02:43:00,47.1,45.2,29.89,South,181,0.0,0.0,93,0.00,,,0.07,Wunderground v.1.15,2013-03-31 06:43:00,
2013-03-31 02:44:00,47.1,45.2,29.89,South,181,0.0,0.0,93,0.00,,,0.07,Wunderground v.1.15,2013-03-31 06:44:00,
2013-03-31 02:46:00,47.1,45.2,29.89,South,181,0.0,0.0,93,0.00,,,0.07,Wunderground v.1.15,2013-03-31 06:46:00,
2013-03-31 02:49:00,47.1,45.2,29.88,South,181,0.0,0.0,93,0.00,,,0.07,Wunderground v.1.15,2013-03-31 06:49:00,
2013-03-31 02:51:00,47.1,45.2,29.88,South,182,0.0,0.0,93,0.00,,,0.07,Wunderground v.1.15,2013-03-31 06:51:00,
2013-03-31 02:54:00,47.1,45.2,29.88,South,181,0.0,0.0,93,0.00,,,0.07,Wunderground v.1.15,2013-03-31 06:54:00,
2013-03-31 02:57:00,47.1,45.2,29.88,South,182,0.0,0.0,93,0.00,,,0.07,Wunderground v.1.15,2013-03-31 06:57:00,
2013-03-31 02:59:00,47.1,45.2,29.88,South,182,0.0,0.0,93,0.00,,,0.07,Wunderground v.1.15,2013-03-31 06:59:00,
2013-03-31 03:00:00,47.1,45.2,29.88,South,181,0.0,0.0,93,0.00,,,0.07,Wunderground v.1.15,2013-03-31 07:00:00,
2013-03-31 03:02:00,47.1,45.2,29.88,South,181,0.0,0.0,93,0.00,,,0.07,Wunderground v.1.15,2013-03-31 07:02:00,
2013-03-31 03:04:00,47.1,45.2,29.88,South,181,0.0,0.0,93,0.00,,,0.07,Wunderground v.1.15,2013-03-31 07:04:00,
2013-03-31 03:05:00,47.1,45.2,29.88,South,182,0.0,0.0,93,0.00,,,0.07,Wunderground v.1.15,2013-03-31 07:05:00,
2013-03-31 03:07:00,47.1,45.2,29.88,South,182,0.0,0.0,93,0.00,,,0.07,Wunderground v.1.15,2013-03-31 07:07:00,
2013-03-31 03:09:00,47.1,45.2,29.88,South,182,0.0,0.0,93,0.00,,,0.07,Wunderground v.1.15,2013-03-31 07:09:00,
2013-03-31 03:10:00,47.1,45.2,29.88,South,181,0.0,0.0,93,0.00,,,0.07,Wunderground v.1.15,2013-03-31 07:10:00,
2013-03-31 03:11:00,47.1,45.5,29.88,South,181,0.0,0.0,94,0.00,,,0.07,Wunderground v.1.15,2013-03-31 07:11:00,
2013-03-31 03:13:00,47.1,45.5,29.87,South,182,0.0,0.0,94,0.00,,,0.07,Wunderground v.1.15,2013-03-31 07:13:00,
2013-03-31 03:15:00,47.1,45.5,29.87,South,182,0.0,0.0,94,0.00,,,0.07,Wunderground v.1.15,2013-03-31 07:15:00,
2013-03-31 03:17:00,47.1,45.5,29.87,South,181,0.0,0.0,94,0.00,,,0.07,Wunderground v.1.15,2013-03-31 07:17:00,
2013-03-31 03:18:00,47.0,45.4,29.88,South,181,0.0,0.0,94,0.00,,,0.07,Wunderground v.1.15,2013-03-31 07:18:00,
2013-03-31 03:20:00,47.0,45.4,29.88,South,181,0.0,0.0,94,0.00,,,0.07,Wunderground v.1.15,2013-03-31 07:20:00,
2013-03-31 03:22:00,47.0,45.4,29.87,South,182,0.0,0.0,94,0.00,,,0.07,Wunderground v.1.15,2013-03-31 07:22:00,
2013-03-31 03:24:00,47.0,45.4,29.87,South,181,0.0,0.0,94,0.00,,,0.07,Wunderground v.1.15,2013-03-31 07:24:00,
2013-03-31 03:25:00,47.0,45.4,29.87,South,182,0.0,0.0,94,0.00,,,0.07,Wunderground v.1.15,2013-03-31 07:25:00,
2013-03-31 03:27:00,47.0,45.1,29.87,South,182,0.0,0.0,93,0.00,,,0.07,Wunderground v.1.15,2013-03-31 07:27:00,
2013-03-31 03:29:00,47.0,45.1,29.87,South,182,0.0,0.0,93,0.00,,,0.07,Wunderground v.1.15,2013-03-31 07:29:00,
2013-03-31 03:30:00,46.9,45.0,29.87,South,182,0.0,0.0,93,0.00,,,0.07,Wunderground v.1.15,2013-03-31 07:30:00,
2013-03-31 03:32:00,46.9,45.0,29.87,South,181,0.0,0.0,93,0.00,,,0.07,Wunderground v.1.15,2013-03-31 07:32:00,
2013-03-31 03:34:00,47.0,45.4,29.86,South,181,0.0,0.0,94,0.00,,,0.07,Wunderground v.1.15,2013-03-31 07:34:00,
2013-03-31 03:35:00,46.9,45.3,29.86,South,182,0.0,0.0,94,0.00,,,0.07,Wunderground v.1.15,2013-03-31 07:35:00,
2013-03-31 03:38:00,47.0,45.4,29.86,South,182,0.0,0.0,94,0.00,,,0.07,Wunderground v.1.15,2013-03-31 07:38:00,
2013-03-31 03:39:00,47.0,45.4,29.86,South,181,0.0,0.0,94,0.00,,,0.07,Wunderground v.1.15,2013-03-31 07:39:00,
2013-03-31 03:40:00,47.0,45.4,29.86,South,182,0.0,0.0,94,0.00,,,0.07,Wunderground v.1.15,2013-03-31 07:40:00,
2013-03-31 03:43:00,47.0,45.4,29.86,South,182,0.0,0.0,94,0.00,,,0.07,Wunderground v.1.15,2013-03-31 07:43:00,
2013-03-31 03:45:00,47.0,45.4,29.86,South,182,0.0,0.0,94,0.00,,,0.07,Wunderground v.1.15,2013-03-31 07:45:00,
2013-03-31 03:48:00,47.0,45.4,29.86,South,182,0.0,0.0,94,0.00,,,0.07,Wunderground v.1.15,2013-03-31 07:48:00,
2013-03-31 03:50:00,46.9,45.3,29.86,South,182,0.0,0.0,94,0.00,,,0.07,Wunderground v.1.15,2013-03-31 07:50:00,
2013-03-31 03:51:00,46.9,45.3,29.86,South,182,0.0,0.0,94,0.00,,,0.07,Wunderground v.1.15,2013-03-31 07:51:00,
2013-03-31 03:53:00,46.9,45.3,29.86,South,182,0.0,0.0,94,0.00,,,0.07,Wunderground v.1.15,2013-03-31 07:53:00,
2013-03-31 03:55:00,47.0,45.4,29.86,South,182,0.0,0.0,94,0.00,,,0.07,Wunderground v.1.15,2013-03-31 07:55:00,
2013-03-31 03:56:00,47.0,45.4,29.86,South,182,0.0,0.0,94,0.00,,,0.07,Wunderground v.1.15,2013-03-31 07:56:00,
2013-03-31 03:58:00,47.0,45.4,29.87,South,182,0.0,0.0,94,0.00,,,0.07,Wunderground v.1.15,2013-03-31 07:58:00,
2013-03-31 04:00:00,47.1,45.5,29.87,South,182,0.0,0.0,94,0.00,,,0.07,Wunderground v.1.15,2013-03-31 08:00:00,
2013-03-31 04:01:00,47.1,45.5,29.87,South,182,0.0,0.0,94,0.00,,,0.07,Wunderground v.1.15,2013-03-31 08:01:00,
2013-03-31 04:03:00,47.2,45.6,29.86,South,181,0.0,1.0,94,0.00,,,0.07,Wunderground v.1.15,2013-03-31 08:03:00,
2013-03-31 04:06:00,47.2,45.6,29.86,South,182,0.0,1.0,94,0.00,,,0.07,Wunderground v.1.15,2013-03-31 08:06:00,
2013-03-31 04:09:00,47.3,45.7,29.86,South,182,0.0,1.0,94,0.00,,,0.07,Wunderground v.1.15,2013-03-31 08:09:00,
2013-03-31 04:11:00,47.3,45.7,29.86,South,181,0.0,1.0,94,0.00,,,0.07,Wunderground v.1.15,2013-03-31 08:11:00,
2013-03-31 04:12:00,47.3,45.7,29.86,South,182,0.0,1.0,94,0.00,,,0.07,Wunderground v.1.15,2013-03-31 08:12:00,
2013-03-31 04:14:00,47.3,45.7,29.86,South,181,0.0,1.0,94,0.00,,,0.07,Wunderground v.1.15,2013-03-31 08:14:00,
2013-03-31 04:16:00,47.3,45.7,29.86,South,182,0.0,1.0,94,0.00,,,0.07,Wunderground v.1.15,2013-03-31 08:16:00,
2013-03-31 04:17:00,47.3,45.7,29.85,South,182,0.0,1.0,94,0.00,,,0.07,Wunderground v.1.15,2013-03-31 08:17:00,
2013-03-31 04:19:00,47.3,45.7,29.85,South,181,0.0,1.0,94,0.00,,,0.07,Wunderground v.1.15,2013-03-31 08:19:00,
2013-03-31 04:22:00,47.3,45.7,29.85,South,182,0.0,0.0,94,0.00,,,0.07,Wunderground v.1.15,2013-03-31 08:22:00,
2013-03-31 04:25:00,47.3,45.7,29.85,South,182,0.0,0.0,94,0.00,,,0.07,Wunderground v.1.15,2013-03-31 08:25:00,
2013-03-31 04:27:00,47.3,45.7,29.85,South,181,0.0,0.0,94,0.00,,,0.08,Wunderground v.1.15,2013-03-31 08:27:00,
2013-03-31 04:30:00,47.3,45.7,29.85,South,182,0.0,1.0,94,0.00,,,0.08,Wunderground v.1.15,2013-03-31 08:30:00,
2013-03-31 04:32:00,47.4,45.8,29.85,South,182,0.0,0.0,94,0.00,,,0.08,Wunderground v.1.15,2013-03-31 08:32:00,
2013-03-31 04:33:00,47.3,45.7,29.85,South,181,0.0,0.0,94,0.00,,,0.08,Wunderground v.1.15,2013-03-31 08:33:00,
2013-03-31 04:35:00,47.4,45.8,29.85,South,181,0.0,1.0,94,0.00,,,0.08,Wunderground v.1.15,2013-03-31 08:35:00,
2013-03-31 04:37:00,47.3,45.7,29.85,South,182,0.0,2.0,94,0.00,,,0.08,Wunderground v.1.15,2013-03-31 08:37:00,
2013-03-31 04:38:00,47.4,45.8,29.85,South,182,0.0,2.0,94,0.00,,,0.08,Wunderground v.1.15,2013-03-31 08:38:00,
2013-03-31 04:40:00,47.4,45.8,29.85,South,182,2.0,3.0,94,0.00,,,0.08,Wunderground v.1.15,2013-03-31 08:40:00,
2013-03-31 04:42:00,47.4,45.8,29.85,South,181,0.0,3.0,94,0.00,,,0.08,Wunderground v.1.15,2013-03-31 08:42:00,
2013-03-31 04:43:00,47.4,45.8,29.85,South,181,0.0,3.0,94,0.00,,,0.08,Wunderground v.1.15,2013-03-31 08:43:00,
2013-03-31 04:46:00,47.4,45.8,29.85,South,181,2.0,3.0,94,0.00,,,0.08,Wunderground v.1.15,2013-03-31 08:46:00,
2013-03-31 04:47:00,47.4,45.8,29.85,South,181,0.0,3.0,94,0.00,,,0.08,Wunderground v.1.15,2013-03-31 08:47:00,
2013-03-31 04:48:00,47.4,45.8,29.85,South,182,0.0,3.0,94,0.00,,,0.08,Wunderground v.1.15,2013-03-31 08:48:00,
2013-03-31 04:51:00,47.4,45.8,29.85,South,182,0.0,1.0,94,0.00,,,0.08,Wunderground v.1.15,2013-03-31 08:51:00,
2013-03-31 04:52:00,47.4,45.8,29.85,South,182,0.0,1.0,94,0.00,,,0.08,Wunderground v.1.15,2013-03-31 08:52:00,
2013-03-31 04:53:00,47.3,45.7,29.85,South,182,0.0,1.0,94,0.00,,,0.08,Wunderground v.1.15,2013-03-31 08:53:00,
2013-03-31 04:56:00,47.3,45.7,29.85,South,182,0.0,1.0,94,0.00,,,0.08,Wunderground v.1.15,2013-03-31 08:56:00,
2013-03-31 04:57:00,47.3,45.9,29.85,South,181,0.0,1.0,95,0.00,,,0.08,Wunderground v.1.15,2013-03-31 08:57:00,
2013-03-31 04:58:00,47.4,46.0,29.85,South,181,0.0,1.0,95,0.00,,,0.08,Wunderground v.1.15,2013-03-31 08:58:00,
2013-03-31 05:01:00,47.3,45.9,29.85,South,181,0.0,0.0,95,0.00,,,0.08,Wunderground v.1.15,2013-03-31 09:01:00,
2013-03-31 05:02:00,47.3,45.9,29.85,South,182,0.0,0.0,95,0.00,,,0.08,Wunderground v.1.15,2013-03-31 09:02:00,
2013-03-31 05:03:00,47.3,45.9,29.85,South,182,0.0,0.0,95,0.00,,,0.08,Wunderground v.1.15,2013-03-31 09:03:00,
2013-03-31 05:07:00,47.3,45.9,29.85,South,182,0.0,0.0,95,0.00,,,0.08,Wunderground v.1.15,2013-03-31 09:07:00,
2013-03-31 05:08:00,47.3,45.9,29.85,South,182,0.0,0.0,95,0.00,,,0.08,Wunderground v.1.15,2013-03-31 09:08:00,
2013-03-31 05:12:00,47.3,45.9,29.85,South,182,0.0,0.0,95,0.00,,,0.08,Wunderground v.1.15,2013-03-31 09:12:00,
2013-03-31 05:13:00,47.3,45.7,29.85,South,182,0.0,0.0,94,0.00,,,0.08,Wunderground v.1.15,2013-03-31 09:13:00,
2013-03-31 05:14:00,47.3,45.7,29.85,South,181,0.0,0.0,94,0.00,,,0.08,Wunderground v.1.15,2013-03-31 09:14:00,
2013-03-31 05:17:00,47.3,45.7,29.85,South,181,0.0,0.0,94,0.00,,,0.08,Wunderground v.1.15,2013-03-31 09:17:00,
2013-03-31 05:18:00,47.3,45.7,29.85,South,182,0.0,0.0,94,0.00,,,0.08,Wunderground v.1.15,2013-03-31 09:18:00,
2013-03-31 05:19:00,47.3,45.7,29.85,South,182,0.0,0.0,94,0.00,,,0.08,Wunderground v.1.15,2013-03-31 09:19:00,
2013-03-31 05:22:00,47.3,45.7,29.84,South,181,0.0,0.0,94,0.00,,,0.08,Wunderground v.1.15,2013-03-31 09:22:00,
2013-03-31 05:23:00,47.3,45.7,29.84,South,182,0.0,0.0,94,0.00,,,0.08,Wunderground v.1.15,2013-03-31 09:23:00,
2013-03-31 05:24:00,47.3,45.7,29.84,South,182,0.0,0.0,94,0.00,,,0.08,Wunderground v.1.15,2013-03-31 09:24:00,
2013-03-31 05:27:00,47.3,45.7,29.84,South,182,0.0,0.0,94,0.00,,,0.08,Wunderground v.1.15,2013-03-31 09:27:00,
2013-03-31 05:28:00,47.3,45.7,29.84,South,182,0.0,0.0,94,0.00,,,0.08,Wunderground v.1.15,2013-03-31 09:28:00,
2013-03-31 05:29:00,47.3,45.7,29.84,South,182,0.0,0.0,94,0.00,,,0.08,Wunderground v.1.15,2013-03-31 09:29:00,
2013-03-31 05:32:00,47.3,45.7,29.84,South,182,0.0,2.0,94,0.00,,,0.08,Wunderground v.1.15,2013-03-31 09:32:00,
2013-03-31 05:33:00,47.3,45.7,29.84,South,182,0.0,2.0,94,0.00,,,0.08,Wunderground v.1.15,2013-03-31 09:33:00,
2013-03-31 05:34:00,47.3,45.9,29.84,South,182,0.0,2.0,95,0.00,,,0.08,Wunderground v.1.15,2013-03-31 09:34:00,
2013-03-31 05:38:00,47.3,45.9,29.84,South,182,0.0,2.0,95,0.00,,,0.08,Wunderground v.1.15,2013-03-31 09:38:00,
2013-03-31 05:39:00,47.3,45.9,29.84,South,182,0.0,2.0,95,0.00,,,0.08,Wunderground v.1.15,2013-03-31 09:39:00,
2013-03-31 05:43:00,47.3,45.9,29.84,South,182,0.0,0.0,95,0.00,,,0.08,Wunderground v.1.15,2013-03-31 09:43:00,
2013-03-31 05:44:00,47.3,45.9,29.84,South,182,0.0,0.0,95,0.00,,,0.08,Wunderground v.1.15,2013-03-31 09:44:00,
2013-03-31 05:48:00,47.3,45.9,29.84,South,182,2.0,2.0,95,0.00,,,0.08,Wunderground v.1.15,2013-03-31 09:48:00,
2013-03-31 05:49:00,47.3,45.9,29.84,South,181,0.0,2.0,95,0.00,,,0.08,Wunderground v.1.15,2013-03-31 09:49:00,
2013-03-31 05:53:00,47.3,45.9,29.84,South,182,0.0,0.0,95,0.00,,,0.08,Wunderground v.1.15,2013-03-31 09:53:00,
2013-03-31 05:54:00,47.3,45.9,29.84,South,182,0.0,0.0,95,0.00,,,0.08,Wunderground v.1.15,2013-03-31 09:54:00,
2013-03-31 05:59:00,47.4,46.0,29.84,South,181,0.0,0.0,95,0.00,,,0.08,Wunderground v.1.15,2013-03-31 09:59:00,
2013-03-31 06:00:00,47.3,45.9,29.84,South,182,3.0,3.0,95,0.00,,,0.08,Wunderground v.1.15,2013-03-31 10:00:00,
2013-03-31 06:04:00,47.3,45.9,29.84,South,182,0.0,3.0,95,0.00,,,0.08,Wunderground v.1.15,2013-03-31 10:04:00,
2013-03-31 06:05:00,47.4,46.0,29.84,South,182,0.0,3.0,95,0.00,,,0.08,Wunderground v.1.15,2013-03-31 10:05:00,
2013-03-31 06:09:00,47.3,45.9,29.84,South,182,2.0,3.0,95,0.00,,,0.08,Wunderground v.1.15,2013-03-31 10:09:00,
2013-03-31 06:10:00,47.4,46.0,29.84,South,181,0.0,1.0,95,0.00,,,0.08,Wunderground v.1.15,2013-03-31 10:10:00,
2013-03-31 06:14:00,47.4,46.0,29.85,South,181,3.0,3.0,95,0.00,,,0.08,Wunderground v.1.15,2013-03-31 10:14:00,
2013-03-31 06:15:00,47.3,45.9,29.85,South,182,2.0,4.0,95,0.00,,,0.08,Wunderground v.1.15,2013-03-31 10:15:00,
2013-03-31 06:19:00,47.3,45.9,29.84,South,184,1.0,4.0,95,0.00,,,0.08,Wunderground v.1.15,2013-03-31 10:19:00,
2013-03-31 06:20:00,47.3,45.9,29.84,South,184,1.0,4.0,95,0.00,,,0.08,Wunderground v.1.15,2013-03-31 10:20:00,
2013-03-31 06:24:00,47.2,45.8,29.84,South,184,2.0,5.0,95,0.00,,,0.08,Wunderground v.1.15,2013-03-31 10:24:00,
2013-03-31 06:25:00,47.2,45.8,29.84,South,184,0.0,5.0,95,0.00,,,0.08,Wunderground v.1.15,2013-03-31 10:25:00,
2013-03-31 06:26:00,47.2,45.8,29.84,South,184,0.0,5.0,95,0.00,,,0.08,Wunderground v.1.15,2013-03-31 10:26:00,
2013-03-31 06:29:00,47.2,45.8,29.84,South,184,0.0,5.0,95,0.00,,,0.08,Wunderground v.1.15,2013-03-31 10:29:00,
2013-03-31 06:30:00,47.2,45.8,29.84,South,184,0.0,1.0,95,0.00,,,0.08,Wunderground v.1.15,2013-03-31 10:30:00,
2013-03-31 06:31:00,47.2,45.8,29.84,South,184,0.0,1.0,95,0.00,,,0.08,Wunderground v.1.15,2013-03-31 10:31:00,
2013-03-31 06:34:00,47.1,45.7,29.85,South,184,0.0,3.0,95,0.00,,,0.08,Wunderground v.1.15,2013-03-31 10:34:00,
2013-03-31 06:35:00,47.1,45.7,29.84,South,184,0.0,3.0,95,0.00,,,0.08,Wunderground v.1.15,2013-03-31 10:35:00,
2013-03-31 06:36:00,47.1,45.7,29.84,South,184,0.0,3.0,95,0.00,,,0.08,Wunderground v.1.15,2013-03-31 10:36:00,
2013-03-31 06:39:00,47.0,45.6,29.85,South,184,0.0,3.0,95,0.00,,,0.08,Wunderground v.1.15,2013-03-31 10:39:00,
2013-03-31 06:41:00,47.0,45.6,29.85,South,184,0.0,0.0,95,0.00,,,0.08,Wunderground v.1.15,2013-03-31 10:41:00,
2013-03-31 06:42:00,47.0,45.6,29.85,South,184,0.0,0.0,95,0.00,,,0.08,Wunderground v.1.15,2013-03-31 10:42:00,
2013-03-31 06:44:00,47.0,45.6,29.85,South,184,2.0,2.0,95,0.00,,,0.08,Wunderground v.1.15,2013-03-31 10:44:00,
2013-03-31 06:47:00,47.0,45.6,29.85,South,184,0.0,2.0,95,0.00,,,0.08,Wunderground v.1.15,2013-03-31 10:47:00,
2013-03-31 06:49:00,46.9,45.5,29.85,South,184,0.0,2.0,95,0.00,,,0.08,Wunderground v.1.15,2013-03-31 10:49:00,
2013-03-31 06:52:00,46.9,45.5,29.85,South,184,0.0,0.0,95,0.00,,,0.08,Wunderground v.1.15,2013-03-31 10:52:00,
2013-03-31 06:53:00,47.0,45.6,29.85,South,184,0.0,0.0,95,0.00,,,0.08,Wunderground v.1.15,2013-03-31 10:53:00,
2013-03-31 06:55:00,46.9,45.5,29.86,South,184,0.0,0.0,95,0.00,,,0.08,Wunderground v.1.15,2013-03-31 10:55:00,
2013-03-31 06:57:00,46.9,45.5,29.86,South,184,0.0,0.0,95,0.00,,,0.08,Wunderground v.1.15,2013-03-31 10:57:00,
2013-03-31 06:58:00,46.9,45.5,29.86,South,184,0.0,0.0,95,0.00,,,0.08,Wunderground v.1.15,2013-03-31 10:58:00,
2013-03-31 07:00:00,46.9,45.5,29.86,South,184,1.0,2.0,95,0.00,,,0.08,Wunderground v.1.15,2013-03-31 11:00:00,
2013-03-31 07:02:00,46.9,45.5,29.86,South,184,0.0,2.0,95,0.00,,,0.08,Wunderground v.1.15,2013-03-31 11:02:00,
2013-03-31 07:03:00,46.9,45.5,29.86,South,184,0.0,2.0,95,0.00,,,0.08,Wunderground v.1.15,2013-03-31 11:03:00,
2013-03-31 07:05:00,46.9,45.5,29.86,South,184,0.0,2.0,95,0.00,,,0.08,Wunderground v.1.15,2013-03-31 11:05:00,
2013-03-31 07:08:00,46.9,45.5,29.86,South,184,0.0,2.0,95,0.00,,,0.08,Wunderground v.1.15,2013-03-31 11:08:00,
2013-03-31 07:09:00,46.9,45.5,29.86,South,184,0.0,2.0,95,0.00,,,0.08,Wunderground v.1.15,2013-03-31 11:09:00,
2013-03-31 07:10:00,46.9,45.5,29.86,South,184,0.0,0.0,95,0.00,,,0.08,Wunderground v.1.15,2013-03-31 11:10:00,
2013-03-31 07:13:00,46.9,45.5,29.86,South,184,0.0,2.0,95,0.00,,,0.09,Wunderground v.1.15,2013-03-31 11:13:00,
2013-03-31 07:14:00,46.9,45.5,29.86,South,184,0.0,2.0,95,0.00,,,0.09,Wunderground v.1.15,2013-03-31 11:14:00,
2013-03-31 07:15:00,46.9,45.5,29.86,South,184,0.0,2.0,95,0.00,,,0.09,Wunderground v.1.15,2013-03-31 11:15:00,
2013-03-31 07:18:00,46.9,45.5,29.86,South,184,0.0,2.0,95,0.00,,,0.09,Wunderground v.1.15,2013-03-31 11:18:00,
2013-03-31 07:19:00,46.9,45.5,29.86,South,184,0.0,2.0,95,0.00,,,0.09,Wunderground v.1.15,2013-03-31 11:19:00,
2013-03-31 07:20:00,46.9,45.5,29.86,South,184,2.0,3.0,95,0.00,,,0.09,Wunderground v.1.15,2013-03-31 11:20:00,
2013-03-31 07:23:00,46.8,45.4,29.86,South,184,0.0,3.0,95,0.00,,,0.09,Wunderground v.1.15,2013-03-31 11:23:00,
2013-03-31 07:24:00,46.8,45.4,29.86,South,184,0.0,3.0,95,0.00,,,0.09,Wunderground v.1.15,2013-03-31 11:24:00,
2013-03-31 07:27:00,46.8,45.4,29.86,South,184,0.0,3.0,95,0.00,,,0.09,Wunderground v.1.15,2013-03-31 11:27:00,
2013-03-31 07:28:00,46.8,45.4,29.86,South,184,0.0,3.0,95,0.00,,,0.09,Wunderground v.1.15,2013-03-31 11:28:00,
2013-03-31 07:29:00,46.8,45.4,29.86,South,184,0.0,3.0,95,0.00,,,0.09,Wunderground v.1.15,2013-03-31 11:29:00,
2013-03-31 07:32:00,46.8,45.4,29.86,South,184,0.0,0.0,95,0.00,,,0.09,Wunderground v.1.15,2013-03-31 11:32:00,
2013-03-31 07:34:00,46.8,45.4,29.86,South,184,0.0,0.0,95,0.00,,,0.09,Wunderground v.1.15,2013-03-31 11:34:00,
2013-03-31 07:35:00,46.8,45.4,29.86,South,184,0.0,0.0,95,0.00,,,0.09,Wunderground v.1.15,2013-03-31 11:35:00,
2013-03-31 07:37:00,46.8,45.4,29.86,South,184,0.0,0.0,95,0.00,,,0.09,Wunderground v.1.15,2013-03-31 11:37:00,
2013-03-31 07:39:00,46.8,45.4,29.86,South,184,0.0,0.0,95,0.00,,,0.09,Wunderground v.1.15,2013-03-31 11:39:00,
2013-03-31 07:40:00,46.9,45.5,29.86,South,184,0.0,0.0,95,0.00,,,0.09,Wunderground v.1.15,2013-03-31 11:40:00,
2013-03-31 07:42:00,46.8,45.4,29.87,South,184,0.0,0.0,95,0.00,,,0.09,Wunderground v.1.15,2013-03-31 11:42:00,
2013-03-31 07:44:00,46.9,45.5,29.87,South,184,0.0,0.0,95,0.00,,,0.09,Wunderground v.1.15,2013-03-31 11:44:00,
2013-03-31 07:46:00,46.9,45.5,29.87,South,184,0.0,0.0,95,0.00,,,0.09,Wunderground v.1.15,2013-03-31 11:46:00,
2013-03-31 07:48:00,46.9,45.5,29.87,South,184,1.0,2.0,95,0.00,,,0.09,Wunderground v.1.15,2013-03-31 11:48:00,
2013-03-31 07:49:00,46.9,45.5,29.87,South,184,0.0,2.0,95,0.00,,,0.09,Wunderground v.1.15,2013-03-31 11:49:00,
2013-03-31 07:51:00,46.9,45.5,29.87,South,184,0.0,0.0,95,0.00,,,0.09,Wunderground v.1.15,2013-03-31 11:51:00,
2013-03-31 07:53:00,46.9,45.5,29.87,South,184,0.0,0.0,95,0.00,,,0.09,Wunderground v.1.15,2013-03-31 11:53:00,
2013-03-31 07:54:00,46.9,45.5,29.88,South,184,0.0,0.0,95,0.00,,,0.09,Wunderground v.1.15,2013-03-31 11:54:00,
2013-03-31 07:55:00,46.9,45.5,29.87,South,184,0.0,0.0,95,0.00,,,0.09,Wunderground v.1.15,2013-03-31 11:55:00,
2013-03-31 07:56:00,46.9,45.5,29.87,South,184,0.0,0.0,95,0.00,,,0.09,Wunderground v.1.15,2013-03-31 11:56:00,
2013-03-31 07:58:00,46.9,45.5,29.87,South,184,1.0,3.0,95,0.00,,,0.09,Wunderground v.1.15,2013-03-31 11:58:00,
2013-03-31 07:59:00,46.9,45.5,29.87,South,184,0.0,3.0,95,0.00,,,0.09,Wunderground v.1.15,2013-03-31 11:59:00,
2013-03-31 08:00:00,46.9,45.5,29.87,South,184,0.0,3.0,95,0.00,,,0.09,Wunderground v.1.15,2013-03-31 12:00:00,
2013-03-31 08:02:00,46.9,45.5,29.87,South,184,0.0,0.0,95,0.00,,,0.09,Wunderground v.1.15,2013-03-31 12:02:00,
2013-03-31 08:03:00,46.9,45.5,29.87,South,184,0.0,0.0,95,0.00,,,0.09,Wunderground v.1.15,2013-03-31 12:03:00,
2013-03-31 08:04:00,46.9,45.5,29.87,South,184,0.0,0.0,95,0.00,,,0.09,Wunderground v.1.15,2013-03-31 12:04:00,
2013-03-31 08:05:00,46.9,45.5,29.87,South,184,0.0,0.0,95,0.00,,,0.09,Wunderground v.1.15,2013-03-31 12:05:00,
2013-03-31 08:07:00,46.9,45.5,29.87,South,184,0.0,0.0,95,0.00,,,0.09,Wunderground v.1.15,2013-03-31 12:07:00,
2013-03-31 08:08:00,46.9,45.5,29.87,South,184,0.0,0.0,95,0.00,,,0.09,Wunderground v.1.15,2013-03-31 12:08:00,
2013-03-31 08:10:00,46.9,45.5,29.87,South,184,0.0,0.0,95,0.00,,,0.09,Wunderground v.1.15,2013-03-31 12:10:00,
2013-03-31 08:12:00,47.0,45.6,29.88,South,184,0.0,1.0,95,0.00,,,0.09,Wunderground v.1.15,2013-03-31 12:12:00,
2013-03-31 08:13:00,47.0,45.6,29.88,South,184,0.0,1.0,95,0.00,,,0.09,Wunderground v.1.15,2013-03-31 12:13:00,
2013-03-31 08:15:00,47.0,45.6,29.88,South,184,0.0,1.0,95,0.00,,,0.09,Wunderground v.1.15,2013-03-31 12:15:00,
2013-03-31 08:18:00,47.0,45.6,29.88,South,184,0.0,1.0,95,0.00,,,0.09,Wunderground v.1.15,2013-03-31 12:18:00,
2013-03-31 08:20:00,47.0,45.6,29.88,South,184,0.0,1.0,95,0.00,,,0.09,Wunderground v.1.15,2013-03-31 12:20:00,
2013-03-31 08:23:00,47.0,45.6,29.88,South,184,2.0,2.0,95,0.00,,,0.09,Wunderground v.1.15,2013-03-31 12:23:00,
2013-03-31 08:25:00,47.0,45.6,29.88,South,184,0.0,2.0,95,0.00,,,0.09,Wunderground v.1.15,2013-03-31 12:25:00,
2013-03-31 08:28:00,47.1,45.7,29.88,South,184,0.0,2.0,95,0.00,,,0.09,Wunderground v.1.15,2013-03-31 12:28:00,
2013-03-31 08:30:00,47.1,45.7,29.88,South,184,0.0,0.0,95,0.00,,,0.09,Wunderground v.1.15,2013-03-31 12:30:00,
2013-03-31 08:31:00,47.1,45.7,29.88,South,184,0.0,0.0,95,0.00,,,0.09,Wunderground v.1.15,2013-03-31 12:31:00,
2013-03-31 08:33:00,47.1,45.7,29.88,South,184,0.0,2.0,95,0.00,,,0.09,Wunderground v.1.15,2013-03-31 12:33:00,
2013-03-31 08:35:00,47.2,45.8,29.88,South,184,0.0,2.0,95,0.00,,,0.09,Wunderground v.1.15,2013-03-31 12:35:00,
2013-03-31 08:36:00,47.1,45.7,29.88,South,184,1.0,3.0,95,0.00,,,0.09,Wunderground v.1.15,2013-03-31 12:36:00,
2013-03-31 08:38:00,47.2,45.8,29.88,South,184,0.0,3.0,95,0.00,,,0.09,Wunderground v.1.15,2013-03-31 12:38:00,
2013-03-31 08:41:00,47.2,45.8,29.89,SW,224,0.0,2.0,95,0.00,,,0.09,Wunderground v.1.15,2013-03-31 12:41:00,
2013-03-31 08:42:00,47.2,45.8,29.89,SW,224,0.0,2.0,95,0.00,,,0.09,Wunderground v.1.15,2013-03-31 12:42:00,
2013-03-31 08:44:00,47.2,45.8,29.89,SW,224,0.0,3.0,95,0.00,,,0.09,Wunderground v.1.15,2013-03-31 12:44:00,
2013-03-31 08:46:00,47.2,45.8,29.89,SW,224,0.0,3.0,95,0.00,,,0.09,Wunderground v.1.15,2013-03-31 12:46:00,
2013-03-31 08:47:00,47.2,45.8,29.89,SW,224,0.0,3.0,95,0.00,,,0.09,Wunderground v.1.15,2013-03-31 12:47:00,
2013-03-31 08:49:00,47.2,45.8,29.88,SW,224,0.0,3.0,95,0.00,,,0.09,Wunderground v.1.15,2013-03-31 12:49:00,
2013-03-31 08:52:00,47.2,45.8,29.88,SW,224,0.0,1.0,95,0.00,,,0.09,Wunderground v.1.15,2013-03-31 12:52:00,
2013-03-31 08:54:00,47.3,45.9,29.88,SW,224,0.0,1.0,95,0.00,,,0.09,Wunderground v.1.15,2013-03-31 12:54:00,
2013-03-31 08:57:00,47.3,45.9,29.87,SW,224,0.0,1.0,95,0.00,,,0.09,Wunderground v.1.15,2013-03-31 12:57:00,
2013-03-31 08:59:00,47.4,46.0,29.88,SW,224,2.0,3.0,95,0.00,,,0.09,Wunderground v.1.15,2013-03-31 12:59:00,
2013-03-31 09:02:00,47.4,46.0,29.88,SW,224,0.0,0.0,95,0.00,,,0.09,Wunderground v.1.15,2013-03-31 13:02:00,
2013-03-31 09:03:00,47.4,46.0,29.88,SW,224,0.0,0.0,95,0.00,,,0.09,Wunderground v.1.15,2013-03-31 13:03:00,
2013-03-31 09:04:00,47.5,46.1,29.88,SW,224,0.0,1.0,95,0.00,,,0.09,Wunderground v.1.15,2013-03-31 13:04:00,
2013-03-31 09:08:00,47.5,46.1,29.88,SW,224,0.0,1.0,95,0.00,,,0.09,Wunderground v.1.15,2013-03-31 13:08:00,
2013-03-31 09:09:00,47.6,46.2,29.88,SW,224,0.0,1.0,95,0.00,,,0.09,Wunderground v.1.15,2013-03-31 13:09:00,
2013-03-31 09:13:00,47.6,46.2,29.88,SW,224,0.0,1.0,95,0.00,,,0.09,Wunderground v.1.15,2013-03-31 13:13:00,
2013-03-31 09:14:00,47.7,46.3,29.89,SW,224,0.0,3.0,95,0.00,,,0.09,Wunderground v.1.15,2013-03-31 13:14:00,
2013-03-31 09:18:00,47.8,46.4,29.89,SW,224,1.0,3.0,95,0.00,,,0.09,Wunderground v.1.15,2013-03-31 13:18:00,
2013-03-31 09:19:00,47.8,46.4,29.88,SW,224,0.0,3.0,95,0.00,,,0.09,Wunderground v.1.15,2013-03-31 13:19:00,
2013-03-31 09:20:00,47.8,46.4,29.88,SW,224,0.0,3.0,95,0.00,,,0.09,Wunderground v.1.15,2013-03-31 13:20:00,
2013-03-31 09:23:00,47.9,46.5,29.89,SW,224,0.0,3.0,95,0.00,,,0.09,Wunderground v.1.15,2013-03-31 13:23:00,
2013-03-31 09:25:00,47.9,46.5,29.89,SW,224,0.0,3.0,95,0.00,,,0.09,Wunderground v.1.15,2013-03-31 13:25:00,
2013-03-31 09:28:00,48.0,46.9,29.89,SW,224,0.0,3.0,96,0.00,,,0.09,Wunderground v.1.15,2013-03-31 13:28:00,
2013-03-31 09:29:00,48.0,46.9,29.89,SW,224,0.0,3.0,96,0.00,,,0.09,Wunderground v.1.15,2013-03-31 13:29:00,
2013-03-31 09:30:00,48.0,46.6,29.90,SW,224,0.0,3.0,95,0.00,,,0.09,Wunderground v.1.15,2013-03-31 13:30:00,
2013-03-31 09:33:00,48.0,46.6,29.89,SW,224,0.0,0.0,95,0.00,,,0.09,Wunderground v.1.15,2013-03-31 13:33:00,
2013-03-31 09:34:00,48.0,46.6,29.89,SW,224,0.0,0.0,95,0.00,,,0.09,Wunderground v.1.15,2013-03-31 13:34:00,
2013-03-31 09:35:00,48.0,46.6,29.89,SW,224,0.0,0.0,95,0.00,,,0.09,Wunderground v.1.15,2013-03-31 13:35:00,
2013-03-31 09:38:00,48.0,46.6,29.89,SW,224,0.0,0.0,95,0.00,,,0.09,Wunderground v.1.15,2013-03-31 13:38:00,
2013-03-31 09:39:00,48.0,46.6,29.89,SW,224,0.0,0.0,95,0.00,,,0.09,Wunderground v.1.15,2013-03-31 13:39:00,
2013-03-31 09:40:00,48.0,46.6,29.89,SW,224,0.0,1.0,95,0.00,,,0.09,Wunderground v.1.15,2013-03-31 13:40:00,
2013-03-31 09:43:00,48.0,46.6,29.89,SW,224,1.0,3.0,95,0.00,,,0.09,Wunderground v.1.15,2013-03-31 13:43:00,
2013-03-31 09:44:00,48.0,46.6,29.89,SW,224,2.0,3.0,95,0.00,,,0.09,Wunderground v.1.15,2013-03-31 13:44:00,
2013-03-31 09:45:00,48.0,46.6,29.89,SW,224,0.0,3.0,95,0.00,,,0.09,Wunderground v.1.15,2013-03-31 13:45:00,
2013-03-31 09:46:00,48.0,46.6,29.89,SW,224,1.0,3.0,95,0.00,,,0.09,Wunderground v.1.15,2013-03-31 13:46:00,
2013-03-31 09:49:00,48.0,46.6,29.89,SW,227,3.0,4.0,95,0.00,,,0.09,Wunderground v.1.15,2013-03-31 13:49:00,
2013-03-31 09:50:00,48.0,46.6,29.89,SW,228,1.0,2.0,95,0.00,,,0.09,Wunderground v.1.15,2013-03-31 13:50:00,
2013-03-31 09:52:00,47.9,46.5,29.89,WSW,240,3.0,6.0,95,0.00,,,0.09,Wunderground v.1.15,2013-03-31 13:52:00,
2013-03-31 09:54:00,47.9,46.5,29.89,WSW,240,0.0,6.0,95,0.00,,,0.09,Wunderground v.1.15,2013-03-31 13:54:00,
2013-03-31 09:55:00,47.9,46.5,29.89,WSW,240,0.0,6.0,95,0.00,,,0.09,Wunderground v.1.15,2013-03-31 13:55:00,
2013-03-31 09:57:00,47.9,46.5,29.89,WSW,241,2.0,6.0,95,0.00,,,0.09,Wunderground v.1.15,2013-03-31 13:57:00,
2013-03-31 09:59:00,47.9,46.5,29.90,WSW,245,3.0,6.0,95,0.00,,,0.09,Wunderground v.1.15,2013-03-31 13:59:00,
2013-03-31 10:00:00,47.9,46.5,29.90,WSW,246,3.0,3.0,95,0.00,,,0.09,Wunderground v.1.15,2013-03-31 14:00:00,
2013-03-31 10:03:00,47.9,46.5,29.89,WSW,246,0.0,4.0,95,0.00,,,0.09,Wunderground v.1.15,2013-03-31 14:03:00,
2013-03-31 10:04:00,47.9,46.5,29.89,WSW,246,0.0,4.0,95,0.00,,,0.09,Wunderground v.1.15,2013-03-31 14:04:00,
2013-03-31 10:05:00,47.9,46.5,29.89,WSW,246,0.0,4.0,95,0.00,,,0.09,Wunderground v.1.15,2013-03-31 14:05:00,
2013-03-31 10:06:00,47.9,46.5,29.89,WSW,246,0.0,4.0,95,0.00,,,0.09,Wunderground v.1.15,2013-03-31 14:06:00,
2013-03-31 10:08:00,47.9,46.5,29.89,West,263,2.0,6.0,95,0.00,,,0.09,Wunderground v.1.15,2013-03-31 14:08:00,
2013-03-31 10:09:00,47.9,46.5,29.89,West,267,3.0,6.0,95,0.00,,,0.09,Wunderground v.1.15,2013-03-31 14:09:00,
2013-03-31 10:10:00,47.9,46.5,29.89,West,263,3.0,7.0,95,0.00,,,0.09,Wunderground v.1.15,2013-03-31 14:10:00,
2013-03-31 10:12:00,47.9,46.5,29.89,West,272,1.0,4.0,95,0.00,,,0.09,Wunderground v.1.15,2013-03-31 14:12:00,
2013-03-31 10:13:00,47.9,46.5,29.89,West,268,2.0,5.0,95,0.00,,,0.09,Wunderground v.1.15,2013-03-31 14:13:00,
2013-03-31 10:14:00,47.9,46.5,29.90,West,268,4.0,5.0,95,0.00,,,0.09,Wunderground v.1.15,2013-03-31 14:14:00,
2013-03-31 10:15:00,47.9,46.5,29.89,West,268,3.0,5.0,95,0.00,,,0.09,Wunderground v.1.15,2013-03-31 14:15:00,
2013-03-31 10:17:00,47.9,46.5,29.90,West,271,3.0,5.0,95,0.00,,,0.09,Wunderground v.1.15,2013-03-31 14:17:00,
2013-03-31 10:18:00,47.9,46.5,29.90,West,271,2.0,5.0,95,0.00,,,0.09,Wunderground v.1.15,2013-03-31 14:18:00,
2013-03-31 10:19:00,47.9,46.5,29.90,West,263,4.0,5.0,95,0.00,,,0.09,Wunderground v.1.15,2013-03-31 14:19:00,
2013-03-31 10:20:00,47.9,46.5,29.90,WSW,246,11.0,11.0,95,0.00,,,0.09,Wunderground v.1.15,2013-03-31 14:20:00,
2013-03-31 10:22:00,47.8,46.4,29.90,West,280,4.0,11.0,95,0.00,,,0.09,Wunderground v.1.15,2013-03-31 14:22:00,
2013-03-31 10:23:00,47.8,46.4,29.90,West,280,2.0,11.0,95,0.00,,,0.09,Wunderground v.1.15,2013-03-31 14:23:00,
2013-03-31 10:24:00,47.8,46.4,29.90,West,280,3.0,11.0,95,0.00,,,0.09,Wunderground v.1.15,2013-03-31 14:24:00,
2013-03-31 10:25:00,47.8,46.4,29.90,WNW,284,4.0,11.0,95,0.00,,,0.09,Wunderground v.1.15,2013-03-31 14:25:00,
2013-03-31 10:27:00,47.8,46.4,29.90,West,276,2.0,11.0,95,0.00,,,0.09,Wunderground v.1.15,2013-03-31 14:27:00,
2013-03-31 10:29:00,47.8,46.4,29.90,WNW,289,3.0,11.0,95,0.00,,,0.09,Wunderground v.1.15,2013-03-31 14:29:00,
2013-03-31 10:30:00,47.9,46.5,29.90,WNW,289,0.0,3.0,95,0.00,,,0.09,Wunderground v.1.15,2013-03-31 14:30:00,
2013-03-31 10:32:00,47.9,46.5,29.90,WNW,289,2.0,3.0,95,0.00,,,0.09,Wunderground v.1.15,2013-03-31 14:32:00,
2013-03-31 10:34:00,47.9,46.5,29.90,WNW,288,0.0,3.0,95,0.00,,,0.09,Wunderground v.1.15,2013-03-31 14:34:00,
2013-03-31 10:35:00,47.9,46.5,29.90,WNW,289,1.0,3.0,95,0.00,,,0.09,Wunderground v.1.15,2013-03-31 14:35:00,
2013-03-31 10:38:00,47.9,46.5,29.89,WNW,289,0.0,3.0,95,0.00,,,0.09,Wunderground v.1.15,2013-03-31 14:38:00,
2013-03-31 10:39:00,48.0,46.6,29.89,WNW,286,2.0,4.0,95,0.00,,,0.09,Wunderground v.1.15,2013-03-31 14:39:00,
2013-03-31 10:40:00,47.9,46.5,29.89,WNW,286,0.0,4.0,95,0.00,,,0.09,Wunderground v.1.15,2013-03-31 14:40:00,
2013-03-31 10:43:00,48.0,46.6,29.89,WNW,286,0.0,3.0,95,0.00,,,0.09,Wunderground v.1.15,2013-03-31 14:43:00,
2013-03-31 10:44:00,48.1,46.7,29.89,WNW,286,0.0,3.0,95,0.00,,,0.09,Wunderground v.1.15,2013-03-31 14:44:00,
2013-03-31 10:45:00,48.1,46.7,29.89,WNW,286,0.0,3.0,95,0.00,,,0.09,Wunderground v.1.15,2013-03-31 14:45:00,
2013-03-31 10:47:00,48.1,46.7,29.89,WNW,286,0.0,3.0,95,0.00,,,0.09,Wunderground v.1.15,2013-03-31 14:47:00,
2013-03-31 10:48:00,48.2,46.8,29.89,WNW,286,0.0,3.0,95,0.00,,,0.09,Wunderground v.1.15,2013-03-31 14:48:00,
2013-03-31 10:50:00,48.2,46.8,29.89,WNW,286,3.0,3.0,95,0.00,,,0.09,Wunderground v.1.15,2013-03-31 14:50:00,
2013-03-31 10:52:00,48.3,46.9,29.89,WNW,286,0.0,4.0,95,0.00,,,0.09,Wunderground v.1.15,2013-03-31 14:52:00,
2013-03-31 10:53:00,48.3,46.9,29.90,WNW,286,0.0,4.0,95,0.00,,,0.09,Wunderground v.1.15,2013-03-31 14:53:00,
2013-03-31 10:55:00,48.3,46.9,29.89,WNW,286,0.0,4.0,95,0.00,,,0.09,Wunderground v.1.15,2013-03-31 14:55:00,
2013-03-31 10:58:00,48.4,47.0,29.89,WNW,286,4.0,5.0,95,0.00,,,0.09,Wunderground v.1.15,2013-03-31 14:58:00,
2013-03-31 11:00:00,48.4,47.0,29.89,WNW,286,0.0,1.0,95,0.00,,,0.09,Wunderground v.1.15,2013-03-31 15:00:00,
2013-03-31 11:01:00,48.4,47.0,29.89,WNW,286,0.0,1.0,95,0.00,,,0.09,Wunderground v.1.15,2013-03-31 15:01:00,
2013-03-31 11:03:00,48.5,47.1,29.90,WNW,286,0.0,2.0,95,0.00,,,0.09,Wunderground v.1.15,2013-03-31 15:03:00,
2013-03-31 11:05:00,48.5,47.1,29.90,WNW,285,4.0,4.0,95,0.00,,,0.09,Wunderground v.1.15,2013-03-31 15:05:00,
2013-03-31 11:07:00,48.5,47.1,29.90,WNW,282,3.0,5.0,95,0.00,,,0.09,Wunderground v.1.15,2013-03-31 15:07:00,
2013-03-31 11:08:00,48.5,47.1,29.90,West,260,4.0,5.0,95,0.00,,,0.09,Wunderground v.1.15,2013-03-31 15:08:00,
2013-03-31 11:09:00,48.5,47.1,29.90,West,262,3.0,5.0,95,0.00,,,0.09,Wunderground v.1.15,2013-03-31 15:09:00,
2013-03-31 11:10:00,48.5,47.1,29.90,West,265,5.0,5.0,95,0.00,,,0.09,Wunderground v.1.15,2013-03-31 15:10:00,
2013-03-31 11:14:00,48.6,47.2,29.89,WSW,258,2.0,8.0,95,0.00,,,0.09,Wunderground v.1.15,2013-03-31 15:14:00,
2013-03-31 11:15:00,48.7,47.3,29.89,WSW,258,0.0,8.0,95,0.00,,,0.09,Wunderground v.1.15,2013-03-31 15:15:00,
2013-03-31 11:19:00,49.0,47.6,29.89,WSW,251,3.0,8.0,95,0.00,,,0.09,Wunderground v.1.15,2013-03-31 15:19:00,
2013-03-31 11:20:00,49.1,47.7,29.89,West,259,4.0,5.0,95,0.00,,,0.09,Wunderground v.1.15,2013-03-31 15:20:00,
2013-03-31 11:24:00,49.0,47.6,29.89,West,281,4.0,6.0,95,0.00,,,0.09,Wunderground v.1.15,2013-03-31 15:24:00,
2013-03-31 11:25:00,49.1,47.7,29.89,WSW,244,6.0,7.0,95,0.00,,,0.09,Wunderground v.1.15,2013-03-31 15:25:00,
2013-03-31 11:29:00,49.2,47.8,29.89,WSW,256,5.0,7.0,95,0.00,,,0.09,Wunderground v.1.15,2013-03-31 15:29:00,
2013-03-31 11:30:00,49.3,47.9,29.90,West,275,4.0,7.0,95,0.00,,,0.09,Wunderground v.1.15,2013-03-31 15:30:00,
2013-03-31 11:34:00,49.7,48.3,29.90,WNW,288,5.0,9.0,95,0.00,,,0.09,Wunderground v.1.15,2013-03-31 15:34:00,
2013-03-31 11:35:00,49.6,48.2,29.90,West,274,6.0,10.0,95,0.00,,,0.09,Wunderground v.1.15,2013-03-31 15:35:00,
2013-03-31 11:39:00,49.6,48.2,29.90,NW,312,5.0,10.0,95,0.00,,,0.09,Wunderground v.1.15,2013-03-31 15:39:00,
2013-03-31 11:40:00,49.7,48.3,29.90,NW,317,4.0,5.0,95,0.00,,,0.09,Wunderground v.1.15,2013-03-31 15:40:00,
2013-03-31 11:42:00,49.7,48.3,29.90,WNW,286,5.0,5.0,95,0.00,,,0.09,Wunderground v.1.15,2013-03-31 15:42:00,
2013-03-31 11:44:00,49.7,48.0,29.90,WNW,298,5.0,7.0,94,0.00,,,0.09,Wunderground v.1.15,2013-03-31 15:44:00,
2013-03-31 11:45:00,49.7,48.0,29.90,WNW,295,2.0,7.0,94,0.00,,,0.09,Wunderground v.1.15,2013-03-31 15:45:00,
2013-03-31 11:47:00,49.7,48.0,29.90,West,278,1.0,7.0,94,0.00,,,0.09,Wunderground v.1.15,2013-03-31 15:47:00,
2013-03-31 11:49:00,49.7,48.0,29.91,West,276,2.0,7.0,94,0.00,,,0.09,Wunderground v.1.15,2013-03-31 15:49:00,
2013-03-31 11:50:00,49.8,48.1,29.91,West,276,3.0,4.0,94,0.00,,,0.09,Wunderground v.1.15,2013-03-31 15:50:00,
2013-03-31 11:52:00,49.9,48.2,29.91,West,274,4.0,6.0,94,0.00,,,0.09,Wunderground v.1.15,2013-03-31 15:52:00,
2013-03-31 11:54:00,49.9,48.0,29.91,WNW,282,5.0,6.0,93,0.00,,,0.09,Wunderground v.1.15,2013-03-31 15:54:00,
2013-03-31 11:55:00,49.9,48.0,29.91,West,273,6.0,7.0,93,0.00,,,0.09,Wunderground v.1.15,2013-03-31 15:55:00,
2013-03-31 11:56:00,49.9,48.0,29.91,WSW,256,3.0,7.0,93,0.00,,,0.09,Wunderground v.1.15,2013-03-31 15:56:00,
2013-03-31 11:57:00,49.9,48.0,29.91,WSW,256,3.0,7.0,93,0.00,,,0.09,Wunderground v.1.15,2013-03-31 15:57:00,
2013-03-31 11:59:00,49.9,48.0,29.91,WSW,256,0.0,7.0,93,0.00,,,0.09,Wunderground v.1.15,2013-03-31 15:59:00,
2013-03-31 12:01:00,49.9,48.0,29.91,West,269,5.0,5.0,93,0.00,,,0.09,Wunderground v.1.15,2013-03-31 16:01:00,
2013-03-31 12:02:00,49.9,47.7,29.91,West,272,5.0,5.0,92,0.00,,,0.09,Wunderground v.1.15,2013-03-31 16:02:00,
2013-03-31 12:05:00,49.9,47.7,29.91,West,267,2.0,7.0,92,0.00,,,0.09,Wunderground v.1.15,2013-03-31 16:05:00,
2013-03-31 12:06:00,49.9,47.7,29.91,West,267,1.0,7.0,92,0.00,,,0.09,Wunderground v.1.15,2013-03-31 16:06:00,
2013-03-31 12:07:00,49.9,47.7,29.91,West,265,2.0,10.0,92,0.00,,,0.09,Wunderground v.1.15,2013-03-31 16:07:00,
2013-03-31 12:10:00,49.9,47.4,29.91,West,269,2.0,10.0,91,0.00,,,0.09,Wunderground v.1.15,2013-03-31 16:10:00,
2013-03-31 12:12:00,49.9,47.4,29.91,West,271,3.0,7.0,91,0.00,,,0.09,Wunderground v.1.15,2013-03-31 16:12:00,
2013-03-31 12:13:00,49.9,47.4,29.91,WNW,283,5.0,7.0,91,0.00,,,0.09,Wunderground v.1.15,2013-03-31 16:13:00,
2013-03-31 12:15:00,49.9,47.4,29.91,West,267,2.0,7.0,91,0.00,,,0.09,Wunderground v.1.15,2013-03-31 16:15:00,
2013-03-31 12:17:00,49.9,47.4,29.91,West,265,3.0,7.0,91,0.00,,,0.09,Wunderground v.1.15,2013-03-31 16:17:00,
2013-03-31 12:18:00,49.9,47.4,29.91,West,265,3.0,7.0,91,0.00,,,0.09,Wunderground v.1.15,2013-03-31 16:18:00,
2013-03-31 12:20:00,49.9,47.4,29.91,West,276,3.0,4.0,91,0.00,,,0.09,Wunderground v.1.15,2013-03-31 16:20:00,
2013-03-31 12:23:00,49.9,47.4,29.91,West,274,0.0,5.0,91,0.00,,,0.09,Wunderground v.1.15,2013-03-31 16:23:00,
2013-03-31 12:25:00,50.0,47.5,29.91,West,273,1.0,5.0,91,0.00,,,0.09,Wunderground v.1.15,2013-03-31 16:25:00,
2013-03-31 12:28:00,50.1,47.6,29.91,West,278,4.0,6.0,91,0.00,,,0.09,Wunderground v.1.15,2013-03-31 16:28:00,
2013-03-31 12:29:00,50.1,47.6,29.91,West,278,2.0,6.0,91,0.00,,,0.09,Wunderground v.1.15,2013-03-31 16:29:00,
2013-03-31 12:30:00,50.1,47.6,29.92,West,278,0.0,2.0,91,0.00,,,0.09,Wunderground v.1.15,2013-03-31 16:30:00,
2013-03-31 12:33:00,50.1,47.6,29.92,West,275,3.0,5.0,91,0.00,,,0.09,Wunderground v.1.15,2013-03-31 16:33:00,
2013-03-31 12:34:00,50.1,47.6,29.92,West,280,3.0,6.0,91,0.00,,,0.09,Wunderground v.1.15,2013-03-31 16:34:00,
2013-03-31 12:35:00,50.2,47.7,29.92,West,272,4.0,10.0,91,0.00,,,0.09,Wunderground v.1.15,2013-03-31 16:35:00,
2013-03-31 12:38:00,50.2,47.7,29.92,West,265,3.0,10.0,91,0.00,,,0.09,Wunderground v.1.15,2013-03-31 16:38:00,
2013-03-31 12:39:00,50.2,47.7,29.92,WNW,287,5.0,10.0,91,0.00,,,0.09,Wunderground v.1.15,2013-03-31 16:39:00,
2013-03-31 12:40:00,50.2,47.7,29.92,WNW,287,1.0,4.0,91,0.00,,,0.09,Wunderground v.1.15,2013-03-31 16:40:00,
2013-03-31 12:43:00,50.2,47.7,29.92,West,276,5.0,9.0,91,0.00,,,0.09,Wunderground v.1.15,2013-03-31 16:43:00,
2013-03-31 12:44:00,50.2,47.7,29.92,WNW,286,3.0,9.0,91,0.00,,,0.09,Wunderground v.1.15,2013-03-31 16:44:00,
2013-03-31 12:45:00,50.2,47.7,29.92,NW,305,3.0,9.0,91,0.00,,,0.09,Wunderground v.1.15,2013-03-31 16:45:00,
2013-03-31 12:48:00,50.2,47.7,29.92,WNW,290,3.0,13.0,91,0.00,,,0.09,Wunderground v.1.15,2013-03-31 16:48:00,
2013-03-31 12:49:00,50.2,47.4,29.92,NW,315,2.0,13.0,90,0.00,,,0.09,Wunderground v.1.15,2013-03-31 16:49:00,
2013-03-31 12:51:00,50.2,47.4,29.92,WNW,283,5.0,5.0,90,0.00,,,0.09,Wunderground v.1.15,2013-03-31 16:51:00,
2013-03-31 12:54:00,50.2,47.4,29.91,West,271,1.0,9.0,90,0.00,,,0.09,Wunderground v.1.15,2013-03-31 16:54:00,
2013-03-31 12:56:00,50.2,47.4,29.91,West,279,2.0,9.0,90,0.00,,,0.09,Wunderground v.1.15,2013-03-31 16:56:00,
2013-03-31 12:59:00,50.4,47.9,29.91,West,278,2.0,9.0,91,0.00,,,0.09,Wunderground v.1.15,2013-03-31 16:59:00,
2013-03-31 13:00:00,50.4,47.9,29.91,West,278,2.0,9.0,91,0.00,,,0.09,Wunderground v.1.15,2013-03-31 17:00:00,
2013-03-31 13:01:00,50.4,47.9,29.90,West,261,4.0,8.0,91,0.00,,,0.09,Wunderground v.1.15,2013-03-31 17:01:00,
2013-03-31 13:04:00,50.5,48.0,29.91,West,268,4.0,8.0,91,0.00,,,0.09,Wunderground v.1.15,2013-03-31 17:04:00,
2013-03-31 13:05:00,50.6,48.1,29.90,West,268,0.0,8.0,91,0.00,,,0.09,Wunderground v.1.15,2013-03-31 17:05:00,
2013-03-31 13:07:00,50.6,47.8,29.90,West,265,4.0,13.0,90,0.00,,,0.09,Wunderground v.1.15,2013-03-31 17:07:00,
2013-03-31 13:10:00,50.6,47.8,29.90,West,275,4.0,13.0,90,0.00,,,0.09,Wunderground v.1.15,2013-03-31 17:10:00,
2013-03-31 13:11:00,50.5,47.7,29.91,West,278,3.0,4.0,90,0.00,,,0.09,Wunderground v.1.15,2013-03-31 17:11:00,
2013-03-31 13:12:00,50.6,47.8,29.91,WNW,294,0.0,5.0,90,0.00,,,0.09,Wunderground v.1.15,2013-03-31 17:12:00,
2013-03-31 13:15:00,50.6,47.8,29.91,WNW,292,4.0,5.0,90,0.00,,,0.09,Wunderground v.1.15,2013-03-31 17:15:00,
2013-03-31 13:16:00,50.6,47.8,29.91,WNW,287,2.0,5.0,90,0.00,,,0.09,Wunderground v.1.15,2013-03-31 17:16:00,
2013-03-31 13:17:00,50.6,47.8,29.91,WNW,287,0.0,5.0,90,0.00,,,0.09,Wunderground v.1.15,2013-03-31 17:17:00,
2013-03-31 13:20:00,50.6,47.8,29.91,WNW,283,2.0,5.0,90,0.00,,,0.09,Wunderground v.1.15,2013-03-31 17:20:00,
2013-03-31 13:21:00,50.6,47.8,29.91,West,273,3.0,7.0,90,0.00,,,0.09,Wunderground v.1.15,2013-03-31 17:21:00,
2013-03-31 13:22:00,50.6,47.8,29.91,West,273,1.0,7.0,90,0.00,,,0.09,Wunderground v.1.15,2013-03-31 17:22:00,
2013-03-31 13:25:00,50.6,47.8,29.91,West,271,2.0,7.0,90,0.00,,,0.09,Wunderground v.1.15,2013-03-31 17:25:00,
2013-03-31 13:26:00,50.6,47.8,29.91,West,265,6.0,7.0,90,0.00,,,0.09,Wunderground v.1.15,2013-03-31 17:26:00,
2013-03-31 13:27:00,50.6,47.8,29.91,West,271,5.0,7.0,90,0.00,,,0.09,Wunderground v.1.15,2013-03-31 17:27:00,
2013-03-31 13:30:00,50.6,47.8,29.90,WNW,284,2.0,7.0,90,0.00,,,0.09,Wunderground v.1.15,2013-03-31 17:30:00,
2013-03-31 13:32:00,50.7,47.9,29.90,West,274,0.0,7.0,90,0.00,,,0.09,Wunderground v.1.15,2013-03-31 17:32:00,
2013-03-31 13:35:00,50.9,48.1,29.90,West,279,2.0,7.0,90,0.00,,,0.09,Wunderground v.1.15,2013-03-31 17:35:00,
2013-03-31 13:37:00,51.0,48.2,29.90,West,263,3.0,8.0,90,0.00,,,0.09,Wunderground v.1.15,2013-03-31 17:37:00,
2013-03-31 13:38:00,51.0,48.2,29.90,West,263,2.0,8.0,90,0.00,,,0.09,Wunderground v.1.15,2013-03-31 17:38:00,
2013-03-31 13:40:00,51.3,48.5,29.89,West,262,5.0,6.0,90,0.00,,,0.09,Wunderground v.1.15,2013-03-31 17:40:00,
2013-03-31 13:43:00,51.5,48.4,29.89,WNW,285,2.0,7.0,89,0.00,,,0.09,Wunderground v.1.15,2013-03-31 17:43:00,
2013-03-31 13:45:00,51.6,48.5,29.89,West,267,2.0,7.0,89,0.00,,,0.09,Wunderground v.1.15,2013-03-31 17:45:00,
2013-03-31 13:48:00,51.7,48.6,29.89,West,265,2.0,7.0,89,0.00,,,0.09,Wunderground v.1.15,2013-03-31 17:48:00,
2013-03-31 13:49:00,51.7,48.6,29.89,WSW,257,7.0,7.0,89,0.00,,,0.09,Wunderground v.1.15,2013-03-31 17:49:00,
2013-03-31 13:50:00,51.8,48.7,29.89,WSW,248,4.0,6.0,89,0.00,,,0.09,Wunderground v.1.15,2013-03-31 17:50:00,
2013-03-31 13:51:00,51.8,48.7,29.89,WSW,249,3.0,6.0,89,0.00,,,0.09,Wunderground v.1.15,2013-03-31 17:51:00,
2013-03-31 13:53:00,51.8,48.4,29.89,WSW,248,7.0,10.0,88,0.00,,,0.09,Wunderground v.1.15,2013-03-31 17:53:00,
2013-03-31 13:54:00,51.7,48.3,29.88,WSW,257,6.0,10.0,88,0.00,,,0.09,Wunderground v.1.15,2013-03-31 17:54:00,
2013-03-31 13:55:00,51.8,48.4,29.88,WSW,246,4.0,10.0,88,0.00,,,0.09,Wunderground v.1.15,2013-03-31 17:55:00,
2013-03-31 13:56:00,51.8,48.7,29.88,WSW,255,10.0,10.0,89,0.00,,,0.09,Wunderground v.1.15,2013-03-31 17:56:00,
2013-03-31 13:58:00,51.8,48.4,29.88,SW,236,6.0,10.0,88,0.00,,,0.09,Wunderground v.1.15,2013-03-31 17:58:00,
2013-03-31 13:59:00,51.8,48.4,29.88,WSW,237,4.0,10.0,88,0.00,,,0.09,Wunderground v.1.15,2013-03-31 17:59:00,
2013-03-31 14:00:00,51.8,48.4,29.88,WSW,240,2.0,5.0,88,0.00,,,0.09,Wunderground v.1.15,2013-03-31 18:00:00,
2013-03-31 14:02:00,51.9,48.8,29.88,WSW,251,6.0,7.0,89,0.00,,,0.09,Wunderground v.1.15,2013-03-31 18:02:00,
2013-03-31 14:04:00,52.0,48.6,29.88,West,263,3.0,12.0,88,0.00,,,0.09,Wunderground v.1.15,2013-03-31 18:04:00,
2013-03-31 14:06:00,52.1,48.7,29.88,WSW,251,4.0,12.0,88,0.00,,,0.09,Wunderground v.1.15,2013-03-31 18:06:00,
2013-03-31 14:07:00,52.2,48.8,29.88,WSW,251,2.0,12.0,88,0.00,,,0.09,Wunderground v.1.15,2013-03-31 18:07:00,
2013-03-31 14:09:00,52.3,48.9,29.88,WSW,251,1.0,12.0,88,0.00,,,0.09,Wunderground v.1.15,2013-03-31 18:09:00,
2013-03-31 14:11:00,52.4,48.9,29.88,WSW,251,4.0,4.0,88,0.00,,,0.09,Wunderground v.1.15,2013-03-31 18:11:00,
2013-03-31 14:12:00,52.5,49.0,29.89,WSW,251,2.0,5.0,88,0.00,,,0.09,Wunderground v.1.15,2013-03-31 18:12:00,
2013-03-31 14:15:00,52.7,49.2,29.88,WSW,249,5.0,5.0,88,0.00,,,0.09,Wunderground v.1.15,2013-03-31 18:15:00,
2013-03-31 14:16:00,52.7,48.9,29.89,SW,229,10.0,10.0,87,0.00,,,0.09,Wunderground v.1.15,2013-03-31 18:16:00,
2013-03-31 14:18:00,52.7,48.9,29.88,WSW,241,9.0,10.0,87,0.00,,,0.09,Wunderground v.1.15,2013-03-31 18:18:00,
2013-03-31 14:20:00,52.7,48.9,29.88,West,261,4.0,10.0,87,0.00,,,0.09,Wunderground v.1.15,2013-03-31 18:20:00,
2013-03-31 14:21:00,52.6,48.5,29.88,West,265,9.0,9.0,86,0.00,,,0.09,Wunderground v.1.15,2013-03-31 18:21:00,
2013-03-31 14:23:00,52.7,48.9,29.88,WSW,257,4.0,9.0,87,0.00,,,0.09,Wunderground v.1.15,2013-03-31 18:23:00,
2013-03-31 14:25:00,52.8,49.0,29.88,West,279,5.0,9.0,87,0.00,,,0.09,Wunderground v.1.15,2013-03-31 18:25:00,
2013-03-31 14:26:00,53.1,49.6,29.87,West,279,4.0,9.0,88,0.00,,,0.09,Wunderground v.1.15,2013-03-31 18:26:00,
2013-03-31 14:28:00,53.3,49.2,29.87,WSW,244,6.0,9.0,86,0.00,,,0.09,Wunderground v.1.15,2013-03-31 18:28:00,
2013-03-31 14:30:00,53.6,49.8,29.87,WSW,248,4.0,9.0,87,0.00,,,0.09,Wunderground v.1.15,2013-03-31 18:30:00,
2013-03-31 14:32:00,53.9,49.5,29.87,West,272,3.0,8.0,85,0.00,,,0.09,Wunderground v.1.15,2013-03-31 18:32:00,
2013-03-31 14:33:00,54.2,49.1,29.87,West,269,6.0,8.0,83,0.00,,,0.09,Wunderground v.1.15,2013-03-31 18:33:00,
2013-03-31 14:35:00,54.2,49.1,29.87,West,264,5.0,8.0,83,0.00,,,0.09,Wunderground v.1.15,2013-03-31 18:35:00,
2013-03-31 14:37:00,54.4,49.3,29.86,WNW,284,7.0,10.0,83,0.00,,,0.09,Wunderground v.1.15,2013-03-31 18:37:00,
2013-03-31 14:38:00,54.5,49.4,29.87,WSW,250,7.0,10.0,83,0.00,,,0.09,Wunderground v.1.15,2013-03-31 18:38:00,
2013-03-31 14:40:00,54.7,49.3,29.87,West,272,4.0,5.0,82,0.00,,,0.09,Wunderground v.1.15,2013-03-31 18:40:00,
2013-03-31 14:42:00,55.0,49.9,29.87,West,268,4.0,6.0,83,0.00,,,0.09,Wunderground v.1.15,2013-03-31 18:42:00,
2013-03-31 14:44:00,55.2,49.5,29.86,SW,232,9.0,13.0,81,0.00,,,0.09,Wunderground v.1.15,2013-03-31 18:44:00,
2013-03-31 14:45:00,55.3,49.6,29.87,SW,226,5.0,13.0,81,0.00,,,0.09,Wunderground v.1.15,2013-03-31 18:45:00,
2013-03-31 14:47:00,55.5,49.8,29.86,SW,218,5.0,13.0,81,0.00,,,0.09,Wunderground v.1.15,2013-03-31 18:47:00,
2013-03-31 14:49:00,55.6,49.2,29.86,WSW,244,7.0,13.0,79,0.00,,,0.09,Wunderground v.1.15,2013-03-31 18:49:00,
2013-03-31 14:50:00,55.5,48.8,29.86,West,268,5.0,7.0,78,0.00,,,0.09,Wunderground v.1.15,2013-03-31 18:50:00,
2013-03-31 14:52:00,55.5,49.1,29.86,West,275,6.0,9.0,79,0.00,,,0.09,Wunderground v.1.15,2013-03-31 18:52:00,
2013-03-31 14:54:00,55.5,49.4,29.86,West,274,5.0,9.0,80,0.00,,,0.09,Wunderground v.1.15,2013-03-31 18:54:00,
2013-03-31 14:55:00,55.6,49.2,29.86,WSW,237,3.0,9.0,79,0.00,,,0.09,Wunderground v.1.15,2013-03-31 18:55:00,
2013-03-31 14:57:00,55.9,50.2,29.86,SW,215,5.0,9.0,81,0.00,,,0.09,Wunderground v.1.15,2013-03-31 18:57:00,
2013-03-31 14:59:00,55.9,48.4,29.86,WSW,251,8.0,11.0,76,0.00,,,0.09,Wunderground v.1.15,2013-03-31 18:59:00,
2013-03-31 15:00:00,55.9,49.1,29.86,WSW,258,6.0,8.0,78,0.00,,,0.09,Wunderground v.1.15,2013-03-31 19:00:00,
2013-03-31 15:03:00,56.0,48.5,29.86,WSW,245,9.0,10.0,76,0.00,,,0.09,Wunderground v.1.15,2013-03-31 19:03:00,
2013-03-31 15:04:00,56.2,49.1,29.86,SW,232,5.0,12.0,77,0.00,,,0.09,Wunderground v.1.15,2013-03-31 19:04:00,
2013-03-31 15:06:00,56.4,48.9,29.86,SW,232,9.0,12.0,76,0.00,,,0.09,Wunderground v.1.15,2013-03-31 19:06:00,
2013-03-31 15:08:00,56.4,48.2,29.86,SW,233,9.0,12.0,74,0.00,,,0.09,Wunderground v.1.15,2013-03-31 19:08:00,
2013-03-31 15:10:00,56.4,48.9,29.86,WNW,284,4.0,12.0,76,0.00,,,0.09,Wunderground v.1.15,2013-03-31 19:10:00,
2013-03-31 15:11:00,56.5,49.4,29.86,West,278,4.0,10.0,77,0.00,,,0.09,Wunderground v.1.15,2013-03-31 19:11:00,
2013-03-31 15:13:00,56.5,48.7,29.86,West,265,2.0,10.0,75,0.00,,,0.09,Wunderground v.1.15,2013-03-31 19:13:00,
2013-03-31 15:15:00,56.7,48.9,29.86,WSW,245,1.0,10.0,75,0.00,,,0.09,Wunderground v.1.15,2013-03-31 19:15:00,
2013-03-31 15:16:00,56.8,48.6,29.86,SW,236,7.0,10.0,74,0.00,,,0.09,Wunderground v.1.15,2013-03-31 19:16:00,
2013-03-31 15:18:00,57.1,49.6,29.86,WSW,251,5.0,11.0,76,0.00,,,0.09,Wunderground v.1.15,2013-03-31 19:18:00,
2013-03-31 15:20:00,57.2,48.6,29.86,WSW,241,7.0,9.0,73,0.00,,,0.09,Wunderground v.1.15,2013-03-31 19:20:00,
2013-03-31 15:21:00,57.4,49.2,29.86,WSW,238,7.0,9.0,74,0.00,,,0.09,Wunderground v.1.15,2013-03-31 19:21:00,
2013-03-31 15:23:00,57.4,48.4,29.85,WSW,245,5.0,9.0,72,0.00,,,0.09,Wunderground v.1.15,2013-03-31 19:23:00,
2013-03-31 15:25:00,57.7,50.2,29.85,WSW,253,7.0,9.0,76,0.00,,,0.09,Wunderground v.1.15,2013-03-31 19:25:00,
2013-03-31 15:27:00,58.1,49.9,29.86,WSW,257,6.0,9.0,74,0.00,,,0.09,Wunderground v.1.15,2013-03-31 19:27:00,
2013-03-31 15:28:00,58.2,49.2,29.86,WSW,255,9.0,9.0,72,0.00,,,0.09,Wunderground v.1.15,2013-03-31 19:28:00,
2013-03-31 15:30:00,58.2,48.1,29.85,West,269,6.0,9.0,69,0.00,,,0.09,Wunderground v.1.15,2013-03-31 19:30:00,
2013-03-31 15:33:00,57.7,47.6,29.86,WSW,253,4.0,9.0,69,0.00,,,0.09,Wunderground v.1.15,2013-03-31 19:33:00,
2013-03-31 15:34:00,57.4,48.1,29.86,WSW,250,7.0,9.0,71,0.00,,,0.09,Wunderground v.1.15,2013-03-31 19:34:00,
2013-03-31 15:35:00,57.2,48.3,29.86,SW,236,7.0,9.0,72,0.00,,,0.09,Wunderground v.1.15,2013-03-31 19:35:00,
2013-03-31 15:38:00,57.0,48.1,29.86,WSW,257,3.0,9.0,72,0.00,,,0.09,Wunderground v.1.15,2013-03-31 19:38:00,
2013-03-31 15:39:00,56.9,48.3,29.86,WSW,257,2.0,9.0,73,0.00,,,0.09,Wunderground v.1.15,2013-03-31 19:39:00,
2013-03-31 15:40:00,56.9,48.3,29.86,WSW,258,1.0,5.0,73,0.00,,,0.09,Wunderground v.1.15,2013-03-31 19:40:00,
2013-03-31 15:41:00,57.0,48.4,29.86,WSW,257,0.0,5.0,73,0.00,,,0.09,Wunderground v.1.15,2013-03-31 19:41:00,
2013-03-31 15:43:00,57.1,48.5,29.85,WSW,257,0.0,5.0,73,0.00,,,0.09,Wunderground v.1.15,2013-03-31 19:43:00,
2013-03-31 15:45:00,57.3,49.1,29.86,WSW,256,0.0,5.0,74,0.00,,,0.09,Wunderground v.1.15,2013-03-31 19:45:00,
2013-03-31 15:46:00,57.4,48.8,29.86,WSW,258,7.0,7.0,73,0.00,,,0.09,Wunderground v.1.15,2013-03-31 19:46:00,
2013-03-31 15:48:00,57.7,48.7,29.86,WSW,253,9.0,10.0,72,0.00,,,0.09,Wunderground v.1.15,2013-03-31 19:48:00,
2013-03-31 15:50:00,57.7,48.0,29.86,West,269,7.0,12.0,70,0.00,,,0.09,Wunderground v.1.15,2013-03-31 19:50:00,
2013-03-31 15:51:00,57.7,48.4,29.86,WSW,257,10.0,10.0,71,0.00,,,0.09,Wunderground v.1.15,2013-03-31 19:51:00,
2013-03-31 15:52:00,57.6,47.5,29.86,West,259,7.0,11.0,69,0.00,,,0.09,Wunderground v.1.15,2013-03-31 19:52:00,
2013-03-31 15:53:00,57.4,47.7,29.86,WSW,250,5.0,11.0,70,0.00,,,0.09,Wunderground v.1.15,2013-03-31 19:53:00,
2013-03-31 15:55:00,57.4,48.4,29.86,WSW,237,6.0,11.0,72,0.00,,,0.09,Wunderground v.1.15,2013-03-31 19:55:00,
2013-03-31 15:56:00,57.5,48.9,29.85,WSW,245,3.0,11.0,73,0.00,,,0.09,Wunderground v.1.15,2013-03-31 19:56:00,
2013-03-31 15:57:00,57.6,48.6,29.85,WSW,257,5.0,11.0,72,0.00,,,0.09,Wunderground v.1.15,2013-03-31 19:57:00,
2013-03-31 15:58:00,57.7,48.7,29.85,WSW,257,3.0,11.0,72,0.00,,,0.09,Wunderground v.1.15,2013-03-31 19:58:00,
2013-03-31 16:00:00,57.9,48.9,29.85,SW,224,5.0,11.0,72,0.00,,,0.09,Wunderground v.1.15,2013-03-31 20:00:00,
2013-03-31 16:01:00,58.1,49.5,29.85,SW,224,3.0,6.0,73,0.00,,,0.09,Wunderground v.1.15,2013-03-31 20:01:00,
2013-03-31 16:02:00,58.2,49.6,29.85,SW,232,3.0,6.0,73,0.00,,,0.09,Wunderground v.1.15,2013-03-31 20:02:00,
2013-03-31 16:03:00,58.3,48.9,29.85,SW,234,3.0,6.0,71,0.00,,,0.09,Wunderground v.1.15,2013-03-31 20:03:00,
2013-03-31 16:05:00,58.7,49.7,29.84,SW,234,0.0,6.0,72,0.00,,,0.09,Wunderground v.1.15,2013-03-31 20:05:00,
2013-03-31 16:07:00,59.0,49.2,29.85,SW,234,2.0,6.0,70,0.00,,,0.09,Wunderground v.1.15,2013-03-31 20:07:00,
2013-03-31 16:08:00,59.0,49.2,29.85,SW,235,6.0,6.0,70,0.00,,,0.09,Wunderground v.1.15,2013-03-31 20:08:00,
2013-03-31 16:10:00,59.6,49.0,29.85,West,267,5.0,9.0,68,0.00,,,0.09,Wunderground v.1.15,2013-03-31 20:10:00,
2013-03-31 16:12:00,59.7,48.7,29.85,NW,322,3.0,9.0,67,0.00,,,0.09,Wunderground v.1.15,2013-03-31 20:12:00,
2013-03-31 16:13:00,59.7,48.7,29.85,NW,311,3.0,9.0,67,0.00,,,0.09,Wunderground v.1.15,2013-03-31 20:13:00,
2013-03-31 16:16:00,59.8,48.8,29.85,West,276,9.0,10.0,67,0.00,,,0.09,Wunderground v.1.15,2013-03-31 20:16:00,
2013-03-31 16:17:00,59.8,48.4,29.85,WSW,255,11.0,12.0,66,0.00,,,0.09,Wunderground v.1.15,2013-03-31 20:17:00,
2013-03-31 16:18:00,59.8,48.4,29.85,SW,236,14.0,14.0,66,0.00,,,0.09,Wunderground v.1.15,2013-03-31 20:18:00,
2013-03-31 16:21:00,59.8,48.4,29.84,SW,230,11.0,13.0,66,0.00,,,0.09,Wunderground v.1.15,2013-03-31 20:21:00,
2013-03-31 16:23:00,59.9,48.1,29.84,West,266,10.0,13.0,65,0.00,,,0.09,Wunderground v.1.15,2013-03-31 20:23:00,
2013-03-31 16:27:00,60.0,48.2,29.84,West,267,6.0,13.0,65,0.00,,,0.09,Wunderground v.1.15,2013-03-31 20:27:00,
2013-03-31 16:28:00,60.2,48.0,29.85,West,265,7.0,13.0,64,0.00,,,0.09,Wunderground v.1.15,2013-03-31 20:28:00,
2013-03-31 16:32:00,59.9,48.1,29.84,WNW,298,4.0,9.0,65,0.00,,,0.09,Wunderground v.1.15,2013-03-31 20:32:00,
2013-03-31 16:33:00,59.9,48.1,29.84,West,274,3.0,9.0,65,0.00,,,0.09,Wunderground v.1.15,2013-03-31 20:33:00,
2013-03-31 16:37:00,60.3,48.1,29.85,West,269,1.0,11.0,64,0.00,,,0.09,Wunderground v.1.15,2013-03-31 20:37:00,
2013-03-31 16:38:00,60.4,48.6,29.85,West,271,6.0,11.0,65,0.00,,,0.09,Wunderground v.1.15,2013-03-31 20:38:00,
2013-03-31 16:42:00,60.9,48.2,29.84,WSW,249,10.0,10.0,63,0.00,,,0.09,Wunderground v.1.15,2013-03-31 20:42:00,
2013-03-31 16:43:00,61.0,48.3,29.84,West,261,3.0,10.0,63,0.00,,,0.09,Wunderground v.1.15,2013-03-31 20:43:00,
2013-03-31 16:44:00,61.0,48.3,29.84,West,261,3.0,10.0,63,0.00,,,0.09,Wunderground v.1.15,2013-03-31 20:44:00,
2013-03-31 16:47:00,60.7,48.0,29.84,West,277,4.0,13.0,63,0.00,,,0.09,Wunderground v.1.15,2013-03-31 20:47:00,
2013-03-31 16:48:00,60.7,48.0,29.84,West,274,3.0,13.0,63,0.00,,,0.09,Wunderground v.1.15,2013-03-31 20:48:00,
2013-03-31 16:49:00,60.7,48.0,29.84,West,274,4.0,13.0,63,0.00,,,0.09,Wunderground v.1.15,2013-03-31 20:49:00,
2013-03-31 16:52:00,61.0,47.9,29.84,WSW,258,6.0,13.0,62,0.00,,,0.09,Wunderground v.1.15,2013-03-31 20:52:00,
2013-03-31 16:54:00,61.0,47.4,29.84,WNW,290,2.0,13.0,61,0.00,,,0.09,Wunderground v.1.15,2013-03-31 20:54:00,
2013-03-31 16:55:00,61.0,47.4,29.84,WNW,285,4.0,13.0,61,0.00,,,0.09,Wunderground v.1.15,2013-03-31 20:55:00,
2013-03-31 16:58:00,61.2,48.9,29.84,West,275,3.0,13.0,64,0.00,,,0.09,Wunderground v.1.15,2013-03-31 20:58:00,
2013-03-31 16:59:00,61.3,49.0,29.84,West,278,4.0,13.0,64,0.00,,,0.09,Wunderground v.1.15,2013-03-31 20:59:00,
2013-03-31 17:00:00,61.4,49.1,29.84,WSW,245,11.0,13.0,64,0.00,,,0.09,Wunderground v.1.15,2013-03-31 21:00:00,
2013-03-31 17:03:00,61.5,48.8,29.84,West,268,4.0,11.0,63,0.00,,,0.09,Wunderground v.1.15,2013-03-31 21:03:00,
2013-03-31 17:04:00,61.5,48.8,29.84,SW,227,12.0,12.0,63,0.00,,,0.09,Wunderground v.1.15,2013-03-31 21:04:00,
2013-03-31 17:05:00,61.5,48.4,29.84,WSW,242,7.0,12.0,62,0.00,,,0.09,Wunderground v.1.15,2013-03-31 21:05:00,
2013-03-31 17:08:00,61.0,47.0,29.84,West,261,4.0,12.0,60,0.00,,,0.09,Wunderground v.1.15,2013-03-31 21:08:00,
2013-03-31 17:09:00,60.9,47.4,29.84,West,265,3.0,12.0,61,0.00,,,0.09,Wunderground v.1.15,2013-03-31 21:09:00,
2013-03-31 17:10:00,60.8,47.7,29.84,WNW,301,8.0,8.0,62,0.00,,,0.09,Wunderground v.1.15,2013-03-31 21:10:00,
2013-03-31 17:13:00,60.6,47.9,29.84,West,263,9.0,12.0,63,0.00,,,0.09,Wunderground v.1.15,2013-03-31 21:13:00,
2013-03-31 17:14:00,60.5,47.8,29.84,West,259,5.0,12.0,63,0.00,,,0.09,Wunderground v.1.15,2013-03-31 21:14:00,
2013-03-31 17:15:00,60.3,48.1,29.84,SW,235,11.0,12.0,64,0.00,,,0.09,Wunderground v.1.15,2013-03-31 21:15:00,
2013-03-31 17:16:00,60.3,48.1,29.84,SW,235,3.0,12.0,64,0.00,,,0.09,Wunderground v.1.15,2013-03-31 21:16:00,
2013-03-31 17:18:00,59.8,47.6,29.85,SW,234,11.0,17.0,64,0.00,,,0.09,Wunderground v.1.15,2013-03-31 21:18:00,
2013-03-31 17:19:00,59.6,47.4,29.85,West,276,9.0,17.0,64,0.00,,,0.09,Wunderground v.1.15,2013-03-31 21:19:00,
2013-03-31 17:20:00,59.4,47.6,29.84,WSW,252,7.0,7.0,65,0.00,,,0.09,Wunderground v.1.15,2013-03-31 21:20:00,
2013-03-31 17:21:00,59.3,47.5,29.85,WSW,252,7.0,9.0,65,0.00,,,0.09,Wunderground v.1.15,2013-03-31 21:21:00,
2013-03-31 17:23:00,59.1,47.3,29.85,WSW,257,5.0,9.0,65,0.00,,,0.09,Wunderground v.1.15,2013-03-31 21:23:00,
2013-03-31 17:24:00,59.2,47.4,29.84,WSW,253,6.0,9.0,65,0.00,,,0.09,Wunderground v.1.15,2013-03-31 21:24:00,
2013-03-31 17:26:00,59.5,48.1,29.84,WSW,248,6.0,9.0,66,0.00,,,0.09,Wunderground v.1.15,2013-03-31 21:26:00,
2013-03-31 17:28:00,60.1,47.9,29.84,NW,308,5.0,9.0,64,0.00,,,0.09,Wunderground v.1.15,2013-03-31 21:28:00,
2013-03-31 17:29:00,60.2,47.1,29.84,WNW,294,4.0,9.0,62,0.00,,,0.09,Wunderground v.1.15,2013-03-31 21:29:00,
2013-03-31 17:31:00,60.5,47.0,29.84,WNW,303,3.0,9.0,61,0.00,,,0.09,Wunderground v.1.15,2013-03-31 21:31:00,
2013-03-31 17:34:00,60.7,46.7,29.84,WNW,288,3.0,10.0,60,0.00,,,0.09,Wunderground v.1.15,2013-03-31 21:34:00,
2013-03-31 17:36:00,61.0,47.0,29.84,WNW,294,6.0,10.0,60,0.00,,,0.09,Wunderground v.1.15,2013-03-31 21:36:00,
2013-03-31 17:39:00,60.9,47.4,29.85,WNW,282,6.0,10.0,61,0.00,,,0.09,Wunderground v.1.15,2013-03-31 21:39:00,
2013-03-31 17:42:00,60.5,46.5,29.84,West,274,3.0,5.0,60,0.00,,,0.09,Wunderground v.1.15,2013-03-31 21:42:00,
2013-03-31 17:44:00,60.2,46.7,29.84,West,276,3.0,6.0,61,0.00,,,0.09,Wunderground v.1.15,2013-03-31 21:44:00,
2013-03-31 17:47:00,59.9,46.4,29.85,WNW,290,3.0,6.0,61,0.00,,,0.09,Wunderground v.1.15,2013-03-31 21:47:00,
2013-03-31 17:49:00,59.6,46.6,29.85,WNW,303,0.0,6.0,62,0.00,,,0.09,Wunderground v.1.15,2013-03-31 21:49:00,
2013-03-31 17:52:00,59.3,46.7,29.85,NNW,332,6.0,8.0,63,0.00,,,0.09,Wunderground v.1.15,2013-03-31 21:52:00,
2013-03-31 17:54:00,59.0,46.4,29.85,WNW,292,3.0,8.0,63,0.00,,,0.09,Wunderground v.1.15,2013-03-31 21:54:00,
2013-03-31 17:55:00,59.0,46.4,29.85,WNW,292,0.0,8.0,63,0.00,,,0.09,Wunderground v.1.15,2013-03-31 21:55:00,
2013-03-31 17:57:00,59.0,46.8,29.85,WNW,292,0.0,8.0,64,0.00,,,0.09,Wunderground v.1.15,2013-03-31 21:57:00,
2013-03-31 17:58:00,59.0,47.7,29.85,WNW,292,0.0,8.0,66,0.00,,,0.09,Wunderground v.1.15,2013-03-31 21:58:00,
2013-03-31 17:59:00,59.4,47.6,29.85,WNW,287,4.0,8.0,65,0.00,,,0.09,Wunderground v.1.15,2013-03-31 21:59:00,
2013-03-31 18:00:00,59.6,47.0,29.85,West,273,4.0,8.0,63,0.00,,,0.09,Wunderground v.1.15,2013-03-31 22:00:00,
2013-03-31 18:02:00,60.0,47.4,29.85,West,273,0.0,5.0,63,0.00,,,0.09,Wunderground v.1.15,2013-03-31 22:02:00,
2013-03-31 18:04:00,60.3,46.8,29.85,West,260,7.0,7.0,61,0.00,,,0.09,Wunderground v.1.15,2013-03-31 22:04:00,
2013-03-31 18:05:00,60.4,47.3,29.85,WSW,257,2.0,7.0,62,0.00,,,0.09,Wunderground v.1.15,2013-03-31 22:05:00,
2013-03-31 18:07:00,60.4,46.9,29.85,WSW,257,0.0,7.0,61,0.00,,,0.09,Wunderground v.1.15,2013-03-31 22:07:00,
2013-03-31 18:09:00,60.4,46.9,29.85,West,269,4.0,7.0,61,0.00,,,0.09,Wunderground v.1.15,2013-03-31 22:09:00,
2013-03-31 18:10:00,60.4,47.3,29.85,WNW,287,4.0,4.0,62,0.00,,,0.09,Wunderground v.1.15,2013-03-31 22:10:00,
2013-03-31 18:12:00,60.3,47.2,29.85,WSW,255,5.0,12.0,62,0.00,,,0.09,Wunderground v.1.15,2013-03-31 22:12:00,
2013-03-31 18:14:00,60.1,47.0,29.85,West,259,3.0,12.0,62,0.00,,,0.09,Wunderground v.1.15,2013-03-31 22:14:00,
2013-03-31 18:15:00,60.0,46.5,29.85,West,264,2.0,12.0,61,0.00,,,0.09,Wunderground v.1.15,2013-03-31 22:15:00,
2013-03-31 18:17:00,59.9,46.8,29.85,West,272,3.0,12.0,62,0.00,,,0.09,Wunderground v.1.15,2013-03-31 22:17:00,
2013-03-31 18:19:00,59.8,46.3,29.85,West,261,2.0,12.0,61,0.00,,,0.09,Wunderground v.1.15,2013-03-31 22:19:00,
2013-03-31 18:20:00,59.7,46.7,29.85,West,261,0.0,12.0,62,0.00,,,0.09,Wunderground v.1.15,2013-03-31 22:20:00,
2013-03-31 18:22:00,59.5,46.5,29.85,WNW,292,3.0,10.0,62,0.00,,,0.09,Wunderground v.1.15,2013-03-31 22:22:00,
2013-03-31 18:24:00,59.3,46.3,29.85,WNW,299,5.0,11.0,62,0.00,,,0.09,Wunderground v.1.15,2013-03-31 22:24:00,
2013-03-31 18:25:00,59.3,46.3,29.85,WNW,298,3.0,11.0,62,0.00,,,0.09,Wunderground v.1.15,2013-03-31 22:25:00,
2013-03-31 18:26:00,59.2,46.2,29.85,WNW,284,9.0,11.0,62,0.00,,,0.09,Wunderground v.1.15,2013-03-31 22:26:00,
2013-03-31 18:28:00,59.0,45.6,29.85,West,266,4.0,11.0,61,0.00,,,0.09,Wunderground v.1.15,2013-03-31 22:28:00,
2013-03-31 18:30:00,59.0,46.0,29.86,West,276,6.0,8.0,62,0.00,,,0.09,Wunderground v.1.15,2013-03-31 22:30:00,
2013-03-31 18:32:00,59.0,46.0,29.86,West,265,2.0,8.0,62,0.00,,,0.09,Wunderground v.1.15,2013-03-31 22:32:00,
2013-03-31 18:33:00,59.0,46.4,29.86,West,267,4.0,8.0,63,0.00,,,0.09,Wunderground v.1.15,2013-03-31 22:33:00,
2013-03-31 18:35:00,59.0,46.0,29.86,NW,323,4.0,10.0,62,0.00,,,0.09,Wunderground v.1.15,2013-03-31 22:35:00,
2013-03-31 18:37:00,59.0,46.4,29.86,NW,312,4.0,10.0,63,0.00,,,0.09,Wunderground v.1.15,2013-03-31 22:37:00,
2013-03-31 18:38:00,59.0,46.4,29.86,WNW,286,2.0,10.0,63,0.00,,,0.09,Wunderground v.1.15,2013-03-31 22:38:00,
2013-03-31 18:40:00,59.0,47.2,29.86,West,274,4.0,4.0,65,0.00,,,0.09,Wunderground v.1.15,2013-03-31 22:40:00,
2013-03-31 18:42:00,59.0,46.4,29.86,WNW,283,3.0,6.0,63,0.00,,,0.09,Wunderground v.1.15,2013-03-31 22:42:00,
2013-03-31 18:44:00,59.2,47.0,29.86,WNW,290,4.0,6.0,64,0.00,,,0.09,Wunderground v.1.15,2013-03-31 22:44:00,
2013-03-31 18:45:00,59.3,46.7,29.86,WNW,290,1.0,6.0,63,0.00,,,0.09,Wunderground v.1.15,2013-03-31 22:45:00,
2013-03-31 18:46:00,59.3,46.7,29.86,WNW,292,5.0,6.0,63,0.00,,,0.09,Wunderground v.1.15,2013-03-31 22:46:00,
2013-03-31 18:47:00,59.4,46.8,29.86,WSW,256,6.0,9.0,63,0.00,,,0.09,Wunderground v.1.15,2013-03-31 22:47:00,
2013-03-31 18:49:00,59.4,46.8,29.86,WNW,288,5.0,9.0,63,0.00,,,0.09,Wunderground v.1.15,2013-03-31 22:49:00,
2013-03-31 18:50:00,59.3,46.7,29.86,WSW,244,6.0,11.0,63,0.00,,,0.09,Wunderground v.1.15,2013-03-31 22:50:00,
2013-03-31 18:52:00,59.3,46.3,29.86,WSW,256,4.0,11.0,62,0.00,,,0.09,Wunderground v.1.15,2013-03-31 22:52:00,
2013-03-31 18:54:00,59.1,46.1,29.86,WSW,253,5.0,11.0,62,0.00,,,0.09,Wunderground v.1.15,2013-03-31 22:54:00,
2013-03-31 18:56:00,59.1,46.1,29.86,West,271,4.0,11.0,62,0.00,,,0.09,Wunderground v.1.15,2013-03-31 22:56:00,
2013-03-31 18:57:00,59.1,46.5,29.86,WSW,258,8.0,11.0,63,0.00,,,0.09,Wunderground v.1.15,2013-03-31 22:57:00,
2013-03-31 18:58:00,59.2,46.2,29.86,West,264,5.0,11.0,62,0.00,,,0.09,Wunderground v.1.15,2013-03-31 22:58:00,
2013-03-31 18:59:00,59.3,46.7,29.86,West,263,2.0,11.0,63,0.00,,,0.09,Wunderground v.1.15,2013-03-31 22:59:00,
2013-03-31 19:02:00,59.4,46.8,29.86,West,271,4.0,10.0,63,0.00,,,0.09,Wunderground v.1.15,2013-03-31 23:02:00,
2013-03-31 19:03:00,59.4,46.8,29.86,West,280,5.0,10.0,63,0.00,,,0.09,Wunderground v.1.15,2013-03-31 23:03:00,
2013-03-31 19:04:00,59.5,46.9,29.86,North,1,8.0,11.0,63,0.00,,,0.09,Wunderground v.1.15,2013-03-31 23:04:00,
2013-03-31 19:07:00,59.5,46.9,29.85,NW,305,5.0,11.0,63,0.00,,,0.09,Wunderground v.1.15,2013-03-31 23:07:00,
2013-03-31 19:08:00,59.5,46.5,29.85,West,268,4.0,11.0,62,0.00,,,0.09,Wunderground v.1.15,2013-03-31 23:08:00,
2013-03-31 19:10:00,59.5,46.5,29.85,WSW,255,2.0,4.0,62,0.00,,,0.09,Wunderground v.1.15,2013-03-31 23:10:00,
2013-03-31 19:12:00,59.4,46.4,29.85,WSW,258,5.0,5.0,62,0.00,,,0.09,Wunderground v.1.15,2013-03-31 23:12:00,
2013-03-31 19:13:00,59.4,46.4,29.85,WSW,258,2.0,5.0,62,0.00,,,0.09,Wunderground v.1.15,2013-03-31 23:13:00,
2013-03-31 19:15:00,59.3,46.3,29.85,West,266,3.0,7.0,62,0.00,,,0.09,Wunderground v.1.15,2013-03-31 23:15:00,
2013-03-31 19:17:00,59.3,46.7,29.85,West,265,4.0,7.0,63,0.00,,,0.09,Wunderground v.1.15,2013-03-31 23:17:00,
2013-03-31 19:18:00,59.3,46.7,29.85,West,265,4.0,7.0,63,0.00,,,0.09,Wunderground v.1.15,2013-03-31 23:18:00,
2013-03-31 19:20:00,59.1,46.1,29.85,West,276,1.0,4.0,62,0.00,,,0.09,Wunderground v.1.15,2013-03-31 23:20:00,
2013-03-31 19:23:00,59.0,45.6,29.85,WNW,286,3.0,6.0,61,0.00,,,0.09,Wunderground v.1.15,2013-03-31 23:23:00,
2013-03-31 19:24:00,59.0,46.0,29.85,West,267,2.0,7.0,62,0.00,,,0.09,Wunderground v.1.15,2013-03-31 23:24:00,
2013-03-31 19:26:00,59.0,46.4,29.85,West,261,8.0,12.0,63,0.00,,,0.09,Wunderground v.1.15,2013-03-31 23:26:00,
2013-03-31 19:28:00,58.9,45.9,29.85,West,259,2.0,12.0,62,0.00,,,0.09,Wunderground v.1.15,2013-03-31 23:28:00,
2013-03-31 19:29:00,58.9,45.9,29.85,West,261,4.0,12.0,62,0.00,,,0.09,Wunderground v.1.15,2013-03-31 23:29:00,
2013-03-31 19:31:00,58.7,45.7,29.85,West,269,6.0,7.0,62,0.00,,,0.09,Wunderground v.1.15,2013-03-31 23:31:00,
2013-03-31 19:33:00,58.6,45.6,29.85,West,265,3.0,10.0,62,0.00,,,0.09,Wunderground v.1.15,2013-03-31 23:33:00,
2013-03-31 19:34:00,58.6,45.6,29.85,West,266,3.0,10.0,62,0.00,,,0.09,Wunderground v.1.15,2013-03-31 23:34:00,
2013-03-31 19:36:00,58.4,45.4,29.85,West,266,2.0,10.0,62,0.00,,,0.09,Wunderground v.1.15,2013-03-31 23:36:00,
2013-03-31 19:38:00,58.2,45.7,29.85,West,265,3.0,10.0,63,0.00,,,0.09,Wunderground v.1.15,2013-03-31 23:38:00,
2013-03-31 19:39:00,58.2,45.7,29.85,West,265,2.0,10.0,63,0.00,,,0.09,Wunderground v.1.15,2013-03-31 23:39:00,
2013-03-31 19:41:00,58.1,46.0,29.85,WSW,240,6.0,9.0,64,0.00,,,0.09,Wunderground v.1.15,2013-03-31 23:41:00,
2013-03-31 19:44:00,57.9,45.8,29.85,WSW,255,2.0,9.0,64,0.00,,,0.09,Wunderground v.1.15,2013-03-31 23:44:00,
2013-03-31 19:45:00,57.8,45.7,29.85,WSW,255,3.0,9.0,64,0.00,,,0.09,Wunderground v.1.15,2013-03-31 23:45:00,
2013-03-31 19:46:00,57.7,46.0,29.85,WSW,255,0.0,9.0,65,0.00,,,0.09,Wunderground v.1.15,2013-03-31 23:46:00,
2013-03-31 19:49:00,57.6,45.9,29.85,WSW,255,3.0,9.0,65,0.00,,,0.09,Wunderground v.1.15,2013-03-31 23:49:00,
2013-03-31 19:50:00,57.5,45.8,29.85,WSW,255,1.0,9.0,65,0.00,,,0.09,Wunderground v.1.15,2013-03-31 23:50:00,
2013-03-31 19:51:00,57.5,45.8,29.85,WSW,255,3.0,4.0,65,0.00,,,0.09,Wunderground v.1.15,2013-03-31 23:51:00,
2013-03-31 19:54:00,57.3,46.0,29.85,WSW,257,3.0,6.0,66,0.00,,,0.09,Wunderground v.1.15,2013-03-31 23:54:00,
2013-03-31 19:55:00,57.2,45.9,29.85,WSW,257,0.0,6.0,66,0.00,,,0.09,Wunderground v.1.15,2013-03-31 23:55:00,
2013-03-31 19:56:00,57.1,45.8,29.85,WSW,257,2.0,6.0,66,0.00,,,0.09,Wunderground v.1.15,2013-03-31 23:56:00,
2013-03-31 19:59:00,57.0,45.7,29.85,WSW,257,3.0,6.0,66,0.00,,,0.09,Wunderground v.1.15,2013-03-31 23:59:00,
2013-03-31 20:00:00,56.9,46.1,29.85,WSW,256,3.0,6.0,67,0.00,,,0.09,Wunderground v.1.15,2013-04-01 00:00:00,
2013-03-31 20:01:00,56.9,46.1,29.85,WSW,253,4.0,7.0,67,0.00,,,0.09,Wunderground v.1.15,2013-04-01 00:01:00,
2013-03-31 20:04:00,56.8,46.0,29.85,WSW,253,3.0,7.0,67,0.00,,,0.09,Wunderground v.1.15,2013-04-01 00:04:00,
2013-03-31 20:05:00,56.7,45.9,29.85,WSW,253,4.0,7.0,67,0.00,,,0.09,Wunderground v.1.15,2013-04-01 00:05:00,
2013-03-31 20:07:00,56.7,45.9,29.85,WSW,253,2.0,7.0,67,0.00,,,0.09,Wunderground v.1.15,2013-04-01 00:07:00,
2013-03-31 20:09:00,56.5,45.7,29.85,WSW,253,3.0,7.0,67,0.00,,,0.09,Wunderground v.1.15,2013-04-01 00:09:00,
2013-03-31 20:10:00,56.5,45.7,29.85,WSW,253,2.0,7.0,67,0.00,,,0.09,Wunderground v.1.15,2013-04-01 00:10:00,
2013-03-31 20:12:00,56.4,46.0,29.85,WSW,253,4.0,4.0,68,0.00,,,0.09,Wunderground v.1.15,2013-04-01 00:12:00,
2013-03-31 20:14:00,56.2,45.8,29.85,WSW,253,2.0,5.0,68,0.00,,,0.09,Wunderground v.1.15,2013-04-01 00:14:00,
2013-03-31 20:15:00,56.2,45.8,29.85,WSW,252,2.0,5.0,68,0.00,,,0.09,Wunderground v.1.15,2013-04-01 00:15:00,
2013-03-31 20:17:00,56.0,45.6,29.85,WSW,253,1.0,5.0,68,0.00,,,0.09,Wunderground v.1.15,2013-04-01 00:17:00,
2013-03-31 20:20:00,55.8,45.8,29.85,WSW,253,0.0,5.0,69,0.00,,,0.09,Wunderground v.1.15,2013-04-01 00:20:00,
2013-03-31 20:22:00,55.5,45.5,29.85,WSW,252,0.0,1.0,69,0.00,,,0.09,Wunderground v.1.15,2013-04-01 00:22:00,
2013-03-31 20:25:00,55.3,45.3,29.85,WSW,253,0.0,1.0,69,0.00,,,0.09,Wunderground v.1.15,2013-04-01 00:25:00,
2013-03-31 20:27:00,55.0,45.4,29.85,WSW,252,0.0,1.0,70,0.00,,,0.09,Wunderground v.1.15,2013-04-01 00:27:00,
2013-03-31 20:30:00,54.7,45.1,29.85,WSW,252,0.0,3.0,70,0.00,,,0.09,Wunderground v.1.15,2013-04-01 00:30:00,
2013-03-31 20:33:00,54.4,45.2,29.85,WSW,253,0.0,3.0,71,0.00,,,0.09,Wunderground v.1.15,2013-04-01 00:33:00,
2013-03-31 20:35:00,54.1,44.9,29.85,WSW,253,0.0,3.0,71,0.00,,,0.09,Wunderground v.1.15,2013-04-01 00:35:00,
2013-03-31 20:36:00,53.9,45.1,29.85,WSW,252,0.0,3.0,72,0.00,,,0.09,Wunderground v.1.15,2013-04-01 00:36:00,
2013-03-31 20:39:00,53.6,44.8,29.85,WSW,252,0.0,3.0,72,0.00,,,0.09,Wunderground v.1.15,2013-04-01 00:39:00,
2013-03-31 20:40:00,53.5,44.7,29.85,WSW,253,0.0,3.0,72,0.00,,,0.09,Wunderground v.1.15,2013-04-01 00:40:00,
2013-03-31 20:42:00,53.2,44.4,29.85,WSW,252,0.0,0.0,72,0.00,,,0.09,Wunderground v.1.15,2013-04-01 00:42:00,
2013-03-31 20:45:00,52.9,44.5,29.85,WSW,253,0.0,0.0,73,0.00,,,0.09,Wunderground v.1.15,2013-04-01 00:45:00,
2013-03-31 20:46:00,52.8,44.4,29.85,WSW,253,0.0,0.0,73,0.00,,,0.09,Wunderground v.1.15,2013-04-01 00:46:00,
2013-03-31 20:47:00,52.6,44.2,29.85,WSW,253,0.0,0.0,73,0.00,,,0.09,Wunderground v.1.15,2013-04-01 00:47:00,
2013-03-31 20:50:00,52.2,44.2,29.85,WSW,253,0.0,0.0,74,0.00,,,0.09,Wunderground v.1.15,2013-04-01 00:50:00,
2013-03-31 20:51:00,52.2,44.2,29.85,WSW,252,0.0,0.0,74,0.00,,,0.09,Wunderground v.1.15,2013-04-01 00:51:00,
2013-03-31 20:52:00,52.0,44.0,29.85,WSW,252,0.0,0.0,74,0.00,,,0.09,Wunderground v.1.15,2013-04-01 00:52:00,
2013-03-31 20:55:00,51.7,44.0,29.85,WSW,253,0.0,0.0,75,0.00,,,0.09,Wunderground v.1.15,2013-04-01 00:55:00,
2013-03-31 20:56:00,51.6,43.9,29.85,WSW,253,0.0,0.0,75,0.00,,,0.09,Wunderground v.1.15,2013-04-01 00:56:00,
2013-03-31 20:57:00,51.4,43.7,29.85,WSW,252,0.0,0.0,75,0.00,,,0.09,Wunderground v.1.15,2013-04-01 00:57:00,
2013-03-31 21:00:00,51.2,43.9,29.85,WSW,253,0.0,0.0,76,0.00,,,0.09,Wunderground v.1.15,2013-04-01 01:00:00,
2013-03-31 21:02:00,51.0,43.7,29.85,WSW,253,0.0,2.0,76,0.00,,,0.09,Wunderground v.1.15,2013-04-01 01:02:00,
2013-03-31 21:05:00,50.7,43.8,29.85,WSW,252,0.0,2.0,77,0.00,,,0.09,Wunderground v.1.15,2013-04-01 01:05:00,
2013-03-31 21:06:00,50.6,43.7,29.85,WSW,252,0.0,2.0,77,0.00,,,0.09,Wunderground v.1.15,2013-04-01 01:06:00,
2013-03-31 21:07:00,50.5,43.6,29.85,WSW,253,0.0,2.0,77,0.00,,,0.09,Wunderground v.1.15,2013-04-01 01:07:00,
2013-03-31 21:08:00,50.5,43.9,29.85,WSW,252,0.0,2.0,78,0.00,,,0.09,Wunderground v.1.15,2013-04-01 01:08:00,
2013-03-31 21:11:00,50.2,43.6,29.85,WSW,252,0.0,0.0,78,0.00,,,0.09,Wunderground v.1.15,2013-04-01 01:11:00,
2013-03-31 21:12:00,50.1,43.5,29.85,WSW,253,0.0,0.0,78,0.00,,,0.09,Wunderground v.1.15,2013-04-01 01:12:00,
2013-03-31 21:14:00,50.0,43.7,29.85,WSW,252,0.0,0.0,79,0.00,,,0.09,Wunderground v.1.15,2013-04-01 01:14:00,
2013-03-31 21:16:00,49.8,43.5,29.85,WSW,252,0.0,0.0,79,0.00,,,0.09,Wunderground v.1.15,2013-04-01 01:16:00,
2013-03-31 21:17:00,49.7,43.5,29.85,WSW,253,0.0,0.0,79,0.00,,,0.09,Wunderground v.1.15,2013-04-01 01:17:00,
2013-03-31 21:18:00,49.7,43.5,29.86,WSW,252,0.0,0.0,79,0.00,,,0.09,Wunderground v.1.15,2013-04-01 01:18:00,
2013-03-31 21:19:00,49.6,43.4,29.86,WSW,253,0.0,0.0,79,0.00,,,0.09,Wunderground v.1.15,2013-04-01 01:19:00,
2013-03-31 21:22:00,49.5,43.6,29.85,WSW,252,0.0,0.0,80,0.00,,,0.09,Wunderground v.1.15,2013-04-01 01:22:00,
2013-03-31 21:23:00,49.4,43.5,29.86,WSW,253,0.0,0.0,80,0.00,,,0.09,Wunderground v.1.15,2013-04-01 01:23:00,
2013-03-31 21:24:00,49.4,43.5,29.85,WSW,253,0.0,0.0,80,0.00,,,0.09,Wunderground v.1.15,2013-04-01 01:24:00,
2013-03-31 21:27:00,49.2,43.3,29.85,WSW,253,0.0,1.0,80,0.00,,,0.09,Wunderground v.1.15,2013-04-01 01:27:00,
2013-03-31 21:28:00,49.2,43.6,29.85,WSW,253,0.0,1.0,81,0.00,,,0.09,Wunderground v.1.15,2013-04-01 01:28:00,
2013-03-31 21:29:00,49.2,43.3,29.85,WSW,252,0.0,1.0,80,0.00,,,0.09,Wunderground v.1.15,2013-04-01 01:29:00,
2013-03-31 21:32:00,49.2,43.6,29.85,WSW,252,0.0,0.0,81,0.00,,,0.09,Wunderground v.1.15,2013-04-01 01:32:00,
2013-03-31 21:34:00,49.2,43.6,29.85,WSW,253,0.0,0.0,81,0.00,,,0.09,Wunderground v.1.15,2013-04-01 01:34:00,
2013-03-31 21:38:00,49.0,43.4,29.85,WSW,253,0.0,0.0,81,0.00,,,0.09,Wunderground v.1.15,2013-04-01 01:38:00,
2013-03-31 21:39:00,49.0,43.4,29.85,WSW,253,0.0,0.0,81,0.00,,,0.09,Wunderground v.1.15,2013-04-01 01:39:00,
2013-03-31 21:43:00,48.7,43.1,29.85,WSW,253,0.0,0.0,81,0.00,,,0.09,Wunderground v.1.15,2013-04-01 01:43:00,
2013-03-31 21:44:00,48.7,43.1,29.85,WSW,252,0.0,0.0,81,0.00,,,0.09,Wunderground v.1.15,2013-04-01 01:44:00,
2013-03-31 21:48:00,48.5,42.9,29.86,WSW,253,0.0,1.0,81,0.00,,,0.09,Wunderground v.1.15,2013-04-01 01:48:00,
2013-03-31 21:49:00,48.3,43.1,29.85,WSW,253,0.0,1.0,82,0.00,,,0.09,Wunderground v.1.15,2013-04-01 01:49:00,
2013-03-31 21:53:00,48.1,42.9,29.86,WSW,252,0.0,3.0,82,0.00,,,0.09,Wunderground v.1.15,2013-04-01 01:53:00,
2013-03-31 21:54:00,48.1,42.9,29.86,WSW,252,0.0,3.0,82,0.00,,,0.09,Wunderground v.1.15,2013-04-01 01:54:00,
2013-03-31 21:58:00,47.8,42.9,29.86,WSW,253,0.0,3.0,83,0.00,,,0.09,Wunderground v.1.15,2013-04-01 01:58:00,
2013-03-31 21:59:00,47.8,42.9,29.86,WSW,253,0.0,3.0,83,0.00,,,0.09,Wunderground v.1.15,2013-04-01 01:59:00,
2013-03-31 22:03:00,47.6,42.7,29.86,WSW,252,0.0,0.0,83,0.00,,,0.09,Wunderground v.1.15,2013-04-01 02:03:00,
2013-03-31 22:04:00,47.5,42.6,29.86,WSW,253,0.0,0.0,83,0.00,,,0.09,Wunderground v.1.15,2013-04-01 02:04:00,
2013-03-31 22:08:00,47.3,42.7,29.86,WSW,252,0.0,0.0,84,0.00,,,0.09,Wunderground v.1.15,2013-04-01 02:08:00,
2013-03-31 22:09:00,47.3,42.7,29.86,WSW,253,0.0,0.0,84,0.00,,,0.09,Wunderground v.1.15,2013-04-01 02:09:00,
2013-03-31 22:10:00,47.2,42.6,29.86,WSW,253,0.0,0.0,84,0.00,,,0.09,Wunderground v.1.15,2013-04-01 02:10:00,
2013-03-31 22:14:00,47.0,42.4,29.86,WSW,253,0.0,0.0,84,0.00,,,0.09,Wunderground v.1.15,2013-04-01 02:14:00,
2013-03-31 22:15:00,46.9,42.3,29.86,WSW,252,0.0,0.0,84,0.00,,,0.09,Wunderground v.1.15,2013-04-01 02:15:00,
2013-03-31 22:19:00,46.7,42.1,29.86,WSW,253,0.0,0.0,84,0.00,,,0.09,Wunderground v.1.15,2013-04-01 02:19:00,
2013-03-31 22:20:00,46.6,42.0,29.86,WSW,253,0.0,0.0,84,0.00,,,0.09,Wunderground v.1.15,2013-04-01 02:20:00,
2013-03-31 22:24:00,46.3,41.7,29.86,WSW,253,0.0,0.0,84,0.00,,,0.09,Wunderground v.1.15,2013-04-01 02:24:00,
2013-03-31 22:25:00,46.3,42.0,29.86,WSW,252,0.0,0.0,85,0.00,,,0.09,Wunderground v.1.15,2013-04-01 02:25:00,
2013-03-31 22:29:00,46.0,41.7,29.86,WSW,253,0.0,0.0,85,0.00,,,0.09,Wunderground v.1.15,2013-04-01 02:29:00,
2013-03-31 22:30:00,46.0,41.7,29.86,WSW,252,0.0,0.0,85,0.00,,,0.09,Wunderground v.1.15,2013-04-01 02:30:00,
2013-03-31 22:34:00,45.8,41.9,29.86,WSW,253,0.0,0.0,86,0.00,,,0.09,Wunderground v.1.15,2013-04-01 02:34:00,
2013-03-31 22:35:00,45.8,41.9,29.86,WSW,253,0.0,0.0,86,0.00,,,0.09,Wunderground v.1.15,2013-04-01 02:35:00,
2013-03-31 22:39:00,45.5,41.6,29.87,WSW,252,0.0,0.0,86,0.00,,,0.09,Wunderground v.1.15,2013-04-01 02:39:00,
2013-03-31 22:40:00,45.4,41.5,29.87,WSW,253,0.0,0.0,86,0.00,,,0.09,Wunderground v.1.15,2013-04-01 02:40:00,
2013-03-31 22:44:00,45.2,41.3,29.87,WSW,253,0.0,0.0,86,0.00,,,0.09,Wunderground v.1.15,2013-04-01 02:44:00,
2013-03-31 22:45:00,45.1,41.2,29.87,WSW,252,0.0,0.0,86,0.00,,,0.09,Wunderground v.1.15,2013-04-01 02:45:00,
2013-03-31 22:50:00,45.0,41.4,29.87,WSW,253,0.0,0.0,87,0.00,,,0.09,Wunderground v.1.15,2013-04-01 02:50:00,
2013-03-31 22:55:00,44.7,41.4,29.87,WSW,253,0.0,0.0,88,0.00,,,0.09,Wunderground v.1.15,2013-04-01 02:55:00,
2013-03-31 23:00:00,44.6,41.3,29.87,WSW,252,0.0,1.0,88,0.00,,,0.09,Wunderground v.1.15,2013-04-01 03:00:00,
2013-03-31 23:01:00,44.6,41.3,29.87,WSW,252,0.0,0.0,88,0.00,,,0.09,Wunderground v.1.15,2013-04-01 03:01:00,
2013-03-31 23:05:00,44.5,41.2,29.86,WSW,252,0.0,0.0,88,0.00,,,0.09,Wunderground v.1.15,2013-04-01 03:05:00,
2013-03-31 23:06:00,44.4,41.1,29.86,WSW,253,0.0,0.0,88,0.00,,,0.09,Wunderground v.1.15,2013-04-01 03:06:00,
2013-03-31 23:10:00,44.3,41.0,29.86,WSW,252,0.0,0.0,88,0.00,,,0.09,Wunderground v.1.15,2013-04-01 03:10:00,
2013-03-31 23:11:00,44.3,41.0,29.86,WSW,252,0.0,0.0,88,0.00,,,0.09,Wunderground v.1.15,2013-04-01 03:11:00,
2013-03-31 23:13:00,44.3,41.3,29.86,WSW,253,0.0,0.0,89,0.00,,,0.09,Wunderground v.1.15,2013-04-01 03:13:00,
2013-03-31 23:15:00,44.3,41.3,29.87,WSW,253,0.0,0.0,89,0.00,,,0.09,Wunderground v.1.15,2013-04-01 03:15:00,
2013-03-31 23:16:00,44.3,41.3,29.87,WSW,253,0.0,0.0,89,0.00,,,0.09,Wunderground v.1.15,2013-04-01 03:16:00,
2013-03-31 23:18:00,44.3,41.3,29.86,WSW,252,0.0,0.0,89,0.00,,,0.09,Wunderground v.1.15,2013-04-01 03:18:00,
2013-03-31 23:20:00,44.2,41.2,29.86,WSW,253,0.0,0.0,89,0.00,,,0.09,Wunderground v.1.15,2013-04-01 03:20:00,
2013-03-31 23:21:00,44.2,41.2,29.86,WSW,253,0.0,0.0,89,0.00,,,0.09,Wunderground v.1.15,2013-04-01 03:21:00,
2013-03-31 23:23:00,44.0,40.7,29.86,WSW,253,2.0,2.0,88,0.00,,,0.09,Wunderground v.1.15,2013-04-01 03:23:00,
2013-03-31 23:25:00,44.0,40.7,29.86,WSW,252,2.0,2.0,88,0.00,,,0.09,Wunderground v.1.15,2013-04-01 03:25:00,
2013-03-31 23:26:00,43.9,40.6,29.86,WSW,252,0.0,2.0,88,0.00,,,0.09,Wunderground v.1.15,2013-04-01 03:26:00,
2013-03-31 23:27:00,43.9,40.6,29.86,WSW,253,0.0,2.0,88,0.00,,,0.09,Wunderground v.1.15,2013-04-01 03:27:00,
2013-03-31 23:28:00,43.8,40.8,29.86,WSW,253,0.0,2.0,89,0.00,,,0.09,Wunderground v.1.15,2013-04-01 03:28:00,
2013-03-31 23:30:00,43.8,40.8,29.86,WSW,252,0.0,1.0,89,0.00,,,0.09,Wunderground v.1.15,2013-04-01 03:30:00,
2013-03-31 23:31:00,43.7,40.7,29.86,WSW,252,0.0,1.0,89,0.00,,,0.09,Wunderground v.1.15,2013-04-01 03:31:00,
2013-03-31 23:33:00,43.7,40.7,29.86,WSW,253,0.0,1.0,89,0.00,,,0.09,Wunderground v.1.15,2013-04-01 03:33:00,
2013-03-31 23:34:00,43.6,40.6,29.86,WSW,252,0.0,1.0,89,0.00,,,0.09,Wunderground v.1.15,2013-04-01 03:34:00,
2013-03-31 23:36:00,43.6,40.6,29.86,WSW,252,2.0,2.0,89,0.00,,,0.09,Wunderground v.1.15,2013-04-01 03:36:00,
2013-03-31 23:38:00,43.6,40.9,29.86,WSW,253,0.0,2.0,90,0.00,,,0.09,Wunderground v.1.15,2013-04-01 03:38:00,
2013-03-31 23:40:00,43.6,40.9,29.86,WSW,252,0.0,2.0,90,0.00,,,0.09,Wunderground v.1.15,2013-04-01 03:40:00,
2013-03-31 23:41:00,43.5,40.8,29.86,WSW,252,0.0,0.0,90,0.00,,,0.09,Wunderground v.1.15,2013-04-01 03:41:00,
2013-03-31 23:42:00,43.5,40.8,29.86,WSW,252,0.0,0.0,90,0.00,,,0.09,Wunderground v.1.15,2013-04-01 03:42:00,
2013-03-31 23:43:00,43.4,40.7,29.86,WSW,252,0.0,0.0,90,0.00,,,0.09,Wunderground v.1.15,2013-04-01 03:43:00,
2013-03-31 23:45:00,43.4,40.7,29.86,WSW,253,0.0,0.0,90,0.00,,,0.09,Wunderground v.1.15,2013-04-01 03:45:00,
2013-03-31 23:46:00,43.3,40.6,29.86,WSW,253,0.0,0.0,90,0.00,,,0.09,Wunderground v.1.15,2013-04-01 03:46:00,
2013-03-31 23:47:00,43.3,40.6,29.86,WSW,253,0.0,0.0,90,0.00,,,0.09,Wunderground v.1.15,2013-04-01 03:47:00,
2013-03-31 23:48:00,43.3,40.3,29.86,WSW,253,0.0,0.0,89,0.00,,,0.09,Wunderground v.1.15,2013-04-01 03:48:00,
2013-03-31 23:50:00,43.1,40.1,29.86,WSW,253,0.0,0.0,89,0.00,,,0.09,Wunderground v.1.15,2013-04-01 03:50:00,
2013-03-31 23:51:00,43.1,40.1,29.86,WSW,253,0.0,0.0,89,0.00,,,0.09,Wunderground v.1.15,2013-04-01 03:51:00,
2013-03-31 23:52:00,43.0,40.3,29.86,WSW,253,0.0,0.0,90,0.00,,,0.09,Wunderground v.1.15,2013-04-01 03:52:00,
2013-03-31 23:53:00,43.0,40.3,29.86,WSW,253,0.0,0.0,90,0.00,,,0.09,Wunderground v.1.15,2013-04-01 03:53:00,
2013-03-31 23:55:00,42.9,40.2,29.86,WSW,252,0.0,0.0,90,0.00,,,0.09,Wunderground v.1.15,2013-04-01 03:55:00,
2013-03-31 23:56:00,42.9,40.2,29.86,WSW,253,0.0,0.0,90,0.00,,,0.09,Wunderground v.1.15,2013-04-01 03:56:00,
2013-03-31 23:57:00,42.8,40.1,29.86,WSW,253,0.0,0.0,90,0.00,,,0.09,Wunderground v.1.15,2013-04-01 03:57:00,
2013-03-31 23:58:00,42.8,40.1,29.86,WSW,253,0.0,0.0,90,0.00,,,0.09,Wunderground v.1.15,2013-04-01 03:58:00,